Wetterdaten: Sonntag, 29.08.2021
Datum Zeit Temp. Aussen Temp. o. S. Temp +5cm Feuchte Auss Luftdruck Regen Sonnenschein Regendauer Solar Windben Empfang
29.08.2021 00:00 14,8 C 14,4 C 13,4 C 92 % 1020,7 hPa 0,0 l/m 0 min 0 min 0 W/m 6,4 km/h (2 Bft) 95,65 %
29.08.2021 00:02 14,8 C 14,4 C 13,4 C 92 % 1020,7 hPa 0,0 l/m 0 min 0 min 0 W/m 6,4 km/h (2 Bft) 92,50 %
29.08.2021 00:04 14,8 C 14,4 C 13,9 C 92 % 1020,7 hPa 0,0 l/m 0 min 0 min 0 W/m 3,2 km/h (1 Bft) 95,74 %
29.08.2021 00:08 14,8 C 14,4 C 13,4 C 92 % 1020,7 hPa 0,0 l/m 0 min 0 min 0 W/m 12,9 km/h (3 Bft) 93,62 %
29.08.2021 00:10 14,8 C 14,4 C 13,4 C 92 % 1020,7 hPa 0,0 l/m 0 min 0 min 0 W/m 9,7 km/h (2 Bft) 95,65 %
29.08.2021 00:12 14,8 C 14,4 C 13,9 C 92 % 1020,8 hPa 0,0 l/m 0 min 0 min 0 W/m 6,4 km/h (2 Bft) 95,74 %
29.08.2021 00:14 14,8 C 14,4 C 13,9 C 92 % 1020,8 hPa 0,0 l/m 0 min 0 min 0 W/m 9,7 km/h (2 Bft) 93,62 %
29.08.2021 00:16 14,8 C 14,4 C 13,9 C 92 % 1020,8 hPa 0,0 l/m 0 min 0 min 0 W/m 12,9 km/h (3 Bft) 95,35 %
29.08.2021 00:18 14,8 C 14,4 C 13,9 C 92 % 1020,7 hPa 0,0 l/m 0 min 0 min 0 W/m 9,7 km/h (2 Bft) 95,74 %
29.08.2021 00:20 14,8 C 14,4 C 13,9 C 92 % 1020,7 hPa 0,0 l/m 0 min 0 min 0 W/m 16,1 km/h (3 Bft) 95,74 %
29.08.2021 00:22 14,8 C 14,4 C 13,9 C 92 % 1020,7 hPa 0,0 l/m 0 min 0 min 0 W/m 12,9 km/h (3 Bft) 95,74 %
29.08.2021 00:24 14,8 C 14,4 C 13,9 C 92 % 1020,7 hPa 0,0 l/m 0 min 0 min 0 W/m 9,7 km/h (2 Bft) 95,65 %
29.08.2021 00:26 14,8 C 14,4 C 13,9 C 92 % 1020,7 hPa 0,0 l/m 0 min 0 min 0 W/m 9,7 km/h (2 Bft) 90,00 %
29.08.2021 00:28 14,8 C 14,4 C 13,9 C 92 % 1020,8 hPa 0,0 l/m 0 min 0 min 0 W/m 16,1 km/h (3 Bft) 95,74 %
29.08.2021 00:30 14,8 C 14,4 C 13,9 C 92 % 1020,8 hPa 0,0 l/m 0 min 0 min 0 W/m 22,5 km/h (4 Bft) 97,92 %
29.08.2021 00:32 14,8 C 14,4 C 13,9 C 92 % 1020,8 hPa 0,0 l/m 0 min 0 min 0 W/m 12,9 km/h (3 Bft) 91,49 %
29.08.2021 00:34 14,8 C 13,9 C 13,9 C 92 % 1020,8 hPa 0,0 l/m 0 min 0 min 0 W/m 9,7 km/h (2 Bft) 100,00 %
29.08.2021 00:36 14,8 C 13,9 C 13,4 C 92 % 1020,7 hPa 0,0 l/m 0 min 0 min 0 W/m 9,7 km/h (2 Bft) 95,74 %
29.08.2021 00:38 14,8 C 13,9 C 13,4 C 92 % 1020,7 hPa 0,0 l/m 0 min 0 min 0 W/m 12,9 km/h (3 Bft) 100,00 %
29.08.2021 00:40 14,8 C 13,9 C 13,4 C 92 % 1020,7 hPa 0,0 l/m 0 min 0 min 0 W/m 12,9 km/h (3 Bft) 97,87 %
29.08.2021 00:42 14,8 C 13,9 C 13,4 C 92 % 1020,7 hPa 0,0 l/m 0 min 0 min 0 W/m 6,4 km/h (2 Bft) 97,87 %
29.08.2021 00:44 14,8 C 13,9 C 13,4 C 92 % 1020,7 hPa 0,0 l/m 0 min 0 min 0 W/m 9,7 km/h (2 Bft) 97,67 %
29.08.2021 00:46 14,8 C 13,9 C 13,4 C 92 % 1020,7 hPa 0,0 l/m 0 min 0 min 0 W/m 9,7 km/h (2 Bft) 97,96 %
29.08.2021 00:48 14,8 C 13,9 C 13,4 C 92 % 1020,7 hPa 0,0 l/m 0 min 0 min 0 W/m 9,7 km/h (2 Bft) 97,87 %
29.08.2021 00:50 14,7 C 13,9 C 13,4 C 92 % 1020,7 hPa 0,0 l/m 0 min 0 min 0 W/m 3,2 km/h (1 Bft) 97,87 %
29.08.2021 00:52 14,8 C 13,9 C 13,4 C 92 % 1020,7 hPa 0,0 l/m 0 min 0 min 0 W/m 3,2 km/h (1 Bft) 97,92 %
29.08.2021 00:54 14,8 C 13,9 C 13,4 C 92 % 1020,7 hPa 0,0 l/m 0 min 0 min 0 W/m 6,4 km/h (2 Bft) 97,87 %
29.08.2021 00:56 14,8 C 13,9 C 13,4 C 92 % 1020,7 hPa 0,0 l/m 0 min 0 min 0 W/m 9,7 km/h (2 Bft) 97,87 %
29.08.2021 00:58 14,7 C 13,9 C 13,4 C 92 % 1020,7 hPa 0,0 l/m 0 min 0 min 0 W/m 6,4 km/h (2 Bft) 97,83 %
29.08.2021 01:00 14,7 C 13,9 C 13,4 C 92 % 1020,7 hPa 0,0 l/m 0 min 0 min 0 W/m 12,9 km/h (3 Bft) 97,87 %
29.08.2021 01:02 14,7 C 13,9 C 13,4 C 92 % 1020,7 hPa 0,0 l/m 0 min 0 min 0 W/m 6,4 km/h (2 Bft) 97,67 %
29.08.2021 01:04 14,7 C 13,9 C 13,4 C 92 % 1020,8 hPa 0,0 l/m 0 min 0 min 0 W/m 9,7 km/h (2 Bft) 95,74 %
29.08.2021 01:06 14,6 C 13,9 C 13,4 C 92 % 1020,7 hPa 0,0 l/m 0 min 0 min 0 W/m 9,7 km/h (2 Bft) 97,87 %
29.08.2021 01:08 14,6 C 13,9 C 13,4 C 92 % 1020,7 hPa 0,0 l/m 0 min 0 min 0 W/m 16,1 km/h (3 Bft) 97,87 %
29.08.2021 01:10 14,6 C 13,9 C 13,4 C 92 % 1020,8 hPa 0,0 l/m 0 min 0 min 0 W/m 6,4 km/h (2 Bft) 97,83 %
29.08.2021 01:12 14,6 C 13,9 C 13,4 C 92 % 1020,8 hPa 0,0 l/m 0 min 0 min 0 W/m 9,7 km/h (2 Bft) 97,87 %
29.08.2021 01:14 14,6 C 13,9 C 13,4 C 92 % 1020,8 hPa 0,0 l/m 0 min 0 min 0 W/m 19,3 km/h (3 Bft) 100,00 %
29.08.2021 01:16 14,6 C 13,9 C 13,4 C 92 % 1020,7 hPa 0,0 l/m 0 min 0 min 0 W/m 3,2 km/h (1 Bft) 100,00 %
29.08.2021 01:18 14,6 C 13,9 C 13,4 C 92 % 1020,7 hPa 0,0 l/m 0 min 0 min 0 W/m 9,7 km/h (2 Bft) 100,00 %
29.08.2021 01:20 14,6 C 13,9 C 13,4 C 92 % 1020,6 hPa 0,0 l/m 0 min 0 min 0 W/m 9,7 km/h (2 Bft) 100,00 %
29.08.2021 01:22 14,5 C 13,9 C 13,4 C 92 % 1020,6 hPa 0,0 l/m 0 min 0 min 0 W/m 9,7 km/h (2 Bft) 100,00 %
29.08.2021 01:24 14,5 C 13,9 C 13,4 C 92 % 1020,6 hPa 0,0 l/m 0 min 0 min 0 W/m 3,2 km/h (1 Bft) 100,00 %
29.08.2021 01:26 14,5 C 13,9 C 13,4 C 92 % 1020,6 hPa 0,0 l/m 0 min 0 min 0 W/m 9,7 km/h (2 Bft) 100,00 %
29.08.2021 01:28 14,5 C 13,9 C 13,4 C 92 % 1020,7 hPa 0,0 l/m 0 min 0 min 0 W/m 6,4 km/h (2 Bft) 100,00 %
29.08.2021 01:30 14,5 C 13,9 C 13,4 C 92 % 1020,6 hPa 0,0 l/m 0 min 0 min 0 W/m 6,4 km/h (2 Bft) 100,00 %
29.08.2021 01:32 14,5 C 13,9 C 13,4 C 92 % 1020,6 hPa 0,0 l/m 0 min 0 min 0 W/m 12,9 km/h (3 Bft) 100,00 %
29.08.2021 01:34 14,5 C 13,9 C 13,4 C 92 % 1020,6 hPa 0,0 l/m 0 min 0 min 0 W/m 9,7 km/h (2 Bft) 100,00 %
29.08.2021 01:36 14,5 C 13,9 C 13,4 C 92 % 1020,6 hPa 0,0 l/m 0 min 0 min 0 W/m 6,4 km/h (2 Bft) 100,00 %
29.08.2021 01:38 14,5 C 13,9 C 13,4 C 92 % 1020,6 hPa 0,0 l/m 0 min 0 min 0 W/m 9,7 km/h (2 Bft) 100,00 %
29.08.2021 01:40 14,5 C 13,9 C 13,4 C 92 % 1020,6 hPa 0,0 l/m 0 min 0 min 0 W/m 6,4 km/h (2 Bft) 100,00 %
29.08.2021 01:42 14,5 C 13,9 C 13,4 C 92 % 1020,6 hPa 0,0 l/m 0 min 0 min 0 W/m 6,4 km/h (2 Bft) 97,87 %
29.08.2021 01:44 14,5 C 13,9 C 13,4 C 92 % 1020,6 hPa 0,0 l/m 0 min 0 min 0 W/m 9,7 km/h (2 Bft) 100,00 %
29.08.2021 01:46 14,5 C 13,9 C 13,4 C 92 % 1020,5 hPa 0,0 l/m 0 min 0 min 0 W/m 9,7 km/h (2 Bft) 100,00 %
29.08.2021 01:48 14,4 C 13,9 C 13,4 C 92 % 1020,6 hPa 0,0 l/m 0 min 0 min 0 W/m 6,4 km/h (2 Bft) 100,00 %
29.08.2021 01:50 14,5 C 13,9 C 13,4 C 92 % 1020,5 hPa 0,0 l/m 0 min 0 min 0 W/m 9,7 km/h (2 Bft) 93,62 %
29.08.2021 01:52 14,4 C 13,9 C 13,4 C 92 % 1020,5 hPa 0,0 l/m 0 min 0 min 0 W/m 6,4 km/h (2 Bft) 100,00 %
29.08.2021 01:54 14,4 C 13,9 C 13,4 C 92 % 1020,5 hPa 0,0 l/m 0 min 0 min 0 W/m 6,4 km/h (2 Bft) 100,00 %
29.08.2021 01:56 14,4 C 13,9 C 13,4 C 92 % 1020,5 hPa 0,0 l/m 0 min 0 min 0 W/m 9,7 km/h (2 Bft) 97,83 %
29.08.2021 01:58 14,4 C 13,9 C 13,4 C 92 % 1020,5 hPa 0,0 l/m 0 min 0 min 0 W/m 6,4 km/h (2 Bft) 100,00 %
29.08.2021 02:00 14,4 C 13,9 C 13,4 C 92 % 1020,4 hPa 0,0 l/m 0 min 0 min 0 W/m 6,4 km/h (2 Bft) 100,00 %
29.08.2021 02:02 14,3 C 13,9 C 13,4 C 93 % 1020,5 hPa 0,0 l/m 0 min 0 min 0 W/m 9,7 km/h (2 Bft) 97,92 %
29.08.2021 02:04 14,3 C 13,9 C 13,4 C 93 % 1020,5 hPa 0,0 l/m 0 min 0 min 0 W/m 6,4 km/h (2 Bft) 100,00 %
29.08.2021 02:06 14,3 C 13,3 C 13,4 C 92 % 1020,6 hPa 0,0 l/m 0 min 0 min 0 W/m 12,9 km/h (3 Bft) 100,00 %
29.08.2021 02:08 14,2 C 13,3 C 13,4 C 92 % 1020,6 hPa 0,0 l/m 0 min 0 min 0 W/m 6,4 km/h (2 Bft) 100,00 %
29.08.2021 02:10 14,2 C 13,9 C 13,4 C 92 % 1020,6 hPa 0,0 l/m 0 min 0 min 0 W/m 9,7 km/h (2 Bft) 100,00 %
29.08.2021 02:12 14,2 C 13,3 C 13,4 C 93 % 1020,5 hPa 0,0 l/m 0 min 0 min 0 W/m 9,7 km/h (2 Bft) 100,00 %
29.08.2021 02:14 14,2 C 13,9 C 13,4 C 93 % 1020,5 hPa 0,0 l/m 0 min 0 min 0 W/m 12,9 km/h (3 Bft) 100,00 %
29.08.2021 02:16 14,2 C 13,3 C 13,4 C 93 % 1020,5 hPa 0,0 l/m 0 min 0 min 0 W/m 9,7 km/h (2 Bft) 100,00 %
29.08.2021 02:18 14,2 C 13,3 C 13,4 C 93 % 1020,5 hPa 0,0 l/m 0 min 0 min 0 W/m 16,1 km/h (3 Bft) 97,83 %
29.08.2021 02:20 14,2 C 13,3 C 13,4 C 93 % 1020,5 hPa 0,0 l/m 0 min 0 min 0 W/m 6,4 km/h (2 Bft) 97,87 %
29.08.2021 02:22 14,2 C 13,3 C 13,4 C 93 % 1020,5 hPa 0,0 l/m 0 min 0 min 0 W/m 6,4 km/h (2 Bft) 100,00 %
29.08.2021 02:24 14,2 C 13,3 C 13,4 C 93 % 1020,4 hPa 0,0 l/m 0 min 0 min 0 W/m 9,7 km/h (2 Bft) 95,74 %
29.08.2021 02:26 14,2 C 13,3 C 13,4 C 93 % 1020,4 hPa 0,0 l/m 0 min 0 min 0 W/m 9,7 km/h (2 Bft) 100,00 %
29.08.2021 02:28 14,2 C 13,3 C 13,4 C 93 % 1020,4 hPa 0,0 l/m 0 min 0 min 0 W/m 9,7 km/h (2 Bft) 95,74 %
29.08.2021 02:30 14,2 C 13,3 C 13,4 C 93 % 1020,4 hPa 0,0 l/m 0 min 0 min 0 W/m 6,4 km/h (2 Bft) 100,00 %
29.08.2021 02:32 14,2 C 13,3 C 13,4 C 93 % 1020,4 hPa 0,0 l/m 0 min 0 min 0 W/m 9,7 km/h (2 Bft) 100,00 %
29.08.2021 02:34 14,2 C 13,3 C 13,4 C 93 % 1020,4 hPa 0,0 l/m 0 min 0 min 0 W/m 6,4 km/h (2 Bft) 95,74 %
29.08.2021 02:36 14,2 C 13,3 C 13,4 C 93 % 1020,3 hPa 0,0 l/m 0 min 0 min 0 W/m 3,2 km/h (1 Bft) 93,62 %
29.08.2021 02:38 14,2 C 13,3 C 13,4 C 93 % 1020,3 hPa 0,0 l/m 0 min 0 min 0 W/m 9,7 km/h (2 Bft) 95,74 %
29.08.2021 02:40 14,2 C 13,3 C 13,4 C 93 % 1020,3 hPa 0,0 l/m 0 min 0 min 0 W/m 9,7 km/h (2 Bft) 93,62 %
29.08.2021 02:42 14,2 C 13,3 C 13,4 C 93 % 1020,3 hPa 0,0 l/m 0 min 0 min 0 W/m 6,4 km/h (2 Bft) 93,48 %
29.08.2021 02:44 14,2 C 13,3 C 13,4 C 93 % 1020,2 hPa 0,0 l/m 0 min 0 min 0 W/m 12,9 km/h (3 Bft) 91,49 %
29.08.2021 02:46 14,2 C 13,3 C 13,4 C 93 % 1020,3 hPa 0,0 l/m 0 min 0 min 0 W/m 12,9 km/h (3 Bft) 95,74 %
29.08.2021 02:48 14,2 C 13,3 C 13,4 C 93 % 1020,2 hPa 0,0 l/m 0 min 0 min 0 W/m 16,1 km/h (3 Bft) 91,49 %
29.08.2021 02:50 14,2 C 13,3 C 13,4 C 93 % 1020,2 hPa 0,0 l/m 0 min 0 min 0 W/m 6,4 km/h (2 Bft) 91,49 %
29.08.2021 02:52 14,1 C 13,3 C 13,4 C 93 % 1020,1 hPa 0,0 l/m 0 min 0 min 0 W/m 6,4 km/h (2 Bft) 91,49 %
29.08.2021 02:54 14,1 C 13,3 C 12,8 C 93 % 1020,1 hPa 0,0 l/m 0 min 0 min 0 W/m 12,9 km/h (3 Bft) 91,30 %
29.08.2021 02:56 14,1 C 13,3 C 12,8 C 93 % 1020,1 hPa 0,0 l/m 0 min 0 min 0 W/m 9,7 km/h (2 Bft) 93,62 %
29.08.2021 02:58 14,1 C 13,3 C 12,8 C 93 % 1020,1 hPa 0,0 l/m 0 min 0 min 0 W/m 6,4 km/h (2 Bft) 91,49 %
29.08.2021 03:00 14,1 C 13,3 C 12,8 C 93 % 1020,1 hPa 0,0 l/m 0 min 0 min 0 W/m 9,7 km/h (2 Bft) 91,49 %
29.08.2021 03:02 14,1 C 13,3 C 12,8 C 94 % 1020,1 hPa 0,0 l/m 0 min 0 min 0 W/m 12,9 km/h (3 Bft) 93,62 %
29.08.2021 03:04 14,1 C 13,3 C 12,8 C 94 % 1020,2 hPa 0,0 l/m 0 min 0 min 0 W/m 12,9 km/h (3 Bft) 93,62 %
29.08.2021 03:06 14,0 C 13,3 C 12,8 C 94 % 1020,2 hPa 0,0 l/m 0 min 0 min 0 W/m 12,9 km/h (3 Bft) 93,48 %
29.08.2021 03:08 14,0 C 13,3 C 12,8 C 94 % 1020,1 hPa 0,0 l/m 0 min 0 min 0 W/m 12,9 km/h (3 Bft) 95,74 %
29.08.2021 03:10 14,0 C 13,3 C 12,8 C 94 % 1020,1 hPa 0,0 l/m 0 min 0 min 0 W/m 3,2 km/h (1 Bft) 93,62 %
29.08.2021 03:12 14,0 C 13,3 C 13,4 C 94 % 1020,1 hPa 0,0 l/m 0 min 0 min 0 W/m 6,4 km/h (2 Bft) 95,74 %
29.08.2021 03:14 14,0 C 13,3 C 12,8 C 94 % 1020,1 hPa 0,0 l/m 0 min 0 min 0 W/m 16,1 km/h (3 Bft) 93,62 %
29.08.2021 03:16 14,0 C 13,3 C 12,8 C 94 % 1020,0 hPa 0,0 l/m 0 min 0 min 0 W/m 6,4 km/h (2 Bft) 95,74 %
29.08.2021 03:18 14,0 C 13,3 C 12,8 C 94 % 1020,0 hPa 0,0 l/m 0 min 0 min 0 W/m 9,7 km/h (2 Bft) 93,48 %
29.08.2021 03:20 14,0 C 13,3 C 12,8 C 94 % 1020,0 hPa 0,0 l/m 0 min 0 min 0 W/m 6,4 km/h (2 Bft) 97,87 %
29.08.2021 03:22 14,0 C 13,3 C 12,8 C 94 % 1020,0 hPa 0,0 l/m 0 min 0 min 0 W/m 6,4 km/h (2 Bft) 97,87 %
29.08.2021 03:24 14,0 C 13,3 C 13,4 C 94 % 1020,0 hPa 0,0 l/m 0 min 0 min 0 W/m 9,7 km/h (2 Bft) 97,87 %
29.08.2021 03:26 14,0 C 13,3 C 13,4 C 94 % 1020,0 hPa 0,0 l/m 0 min 0 min 0 W/m 6,4 km/h (2 Bft) 100,00 %
29.08.2021 03:28 14,0 C 13,3 C 13,4 C 94 % 1020,0 hPa 0,0 l/m 0 min 0 min 0 W/m 9,7 km/h (2 Bft) 95,65 %
29.08.2021 03:30 14,0 C 13,3 C 13,4 C 94 % 1020,0 hPa 0,0 l/m 0 min 0 min 0 W/m 6,4 km/h (2 Bft) 97,87 %
29.08.2021 03:32 14,0 C 13,3 C 13,4 C 94 % 1020,0 hPa 0,0 l/m 0 min 0 min 0 W/m 12,9 km/h (3 Bft) 97,87 %
29.08.2021 03:34 14,0 C 13,3 C 13,4 C 94 % 1020,1 hPa 0,0 l/m 0 min 0 min 0 W/m 6,4 km/h (2 Bft) 97,87 %
29.08.2021 03:36 14,0 C 13,3 C 13,4 C 94 % 1020,0 hPa 0,0 l/m 0 min 0 min 0 W/m 12,9 km/h (3 Bft) 100,00 %
29.08.2021 03:38 14,0 C 13,3 C 13,4 C 94 % 1020,1 hPa 0,0 l/m 0 min 0 min 0 W/m 6,4 km/h (2 Bft) 100,00 %
29.08.2021 03:40 14,0 C 13,3 C 13,4 C 94 % 1020,0 hPa 0,0 l/m 0 min 0 min 0 W/m 12,9 km/h (3 Bft) 100,00 %
29.08.2021 03:42 14,0 C 13,3 C 13,4 C 94 % 1020,1 hPa 0,0 l/m 0 min 0 min 0 W/m 6,4 km/h (2 Bft) 100,00 %
29.08.2021 03:44 14,0 C 13,3 C 13,4 C 94 % 1020,1 hPa 0,0 l/m 0 min 0 min 0 W/m 6,4 km/h (2 Bft) 97,87 %
29.08.2021 03:46 14,1 C 13,3 C 13,4 C 94 % 1020,0 hPa 0,0 l/m 0 min 0 min 0 W/m 6,4 km/h (2 Bft) 100,00 %
29.08.2021 03:48 14,0 C 13,3 C 13,4 C 94 % 1020,0 hPa 0,0 l/m 0 min 0 min 0 W/m 9,7 km/h (2 Bft) 100,00 %
29.08.2021 03:50 14,0 C 13,3 C 13,4 C 94 % 1020,1 hPa 0,0 l/m 0 min 0 min 0 W/m 6,4 km/h (2 Bft) 100,00 %
29.08.2021 03:52 14,0 C 13,3 C 13,4 C 94 % 1020,1 hPa 0,0 l/m 0 min 0 min 0 W/m 6,4 km/h (2 Bft) 100,00 %
29.08.2021 03:54 14,0 C 13,3 C 13,4 C 94 % 1020,1 hPa 0,0 l/m 0 min 0 min 0 W/m 3,2 km/h (1 Bft) 97,87 %
29.08.2021 03:56 14,1 C 13,3 C 13,4 C 94 % 1020,0 hPa 0,0 l/m 0 min 0 min 0 W/m 3,2 km/h (1 Bft) 100,00 %
29.08.2021 03:58 14,1 C 13,3 C 13,4 C 94 % 1020,1 hPa 0,0 l/m 0 min 0 min 0 W/m 9,7 km/h (2 Bft) 100,00 %
29.08.2021 04:00 14,1 C 13,3 C 13,4 C 94 % 1020,1 hPa 0,0 l/m 0 min 0 min 0 W/m 12,9 km/h (3 Bft) 100,00 %
29.08.2021 04:02 14,1 C 13,3 C 13,4 C 94 % 1020,1 hPa 0,0 l/m 0 min 0 min 0 W/m 3,2 km/h (1 Bft) 96,00 %
29.08.2021 04:04 14,1 C 13,3 C 13,4 C 94 % 1020,1 hPa 0,0 l/m 0 min 0 min 0 W/m 6,4 km/h (2 Bft) 100,00 %
29.08.2021 04:06 14,1 C 13,3 C 13,4 C 94 % 1020,1 hPa 0,0 l/m 0 min 0 min 0 W/m 3,2 km/h (1 Bft) 100,00 %
29.08.2021 04:08 14,1 C 13,3 C 13,4 C 94 % 1020,0 hPa 0,0 l/m 0 min 0 min 0 W/m 6,4 km/h (2 Bft) 100,00 %
29.08.2021 04:10 14,1 C 13,3 C 13,4 C 94 % 1020,0 hPa 0,0 l/m 0 min 0 min 0 W/m 12,9 km/h (3 Bft) 100,00 %
29.08.2021 04:12 14,1 C 13,3 C 13,4 C 94 % 1020,0 hPa 0,0 l/m 0 min 0 min 0 W/m 12,9 km/h (3 Bft) 100,00 %
29.08.2021 04:14 14,1 C 13,3 C 13,4 C 94 % 1020,0 hPa 0,0 l/m 0 min 0 min 0 W/m 6,4 km/h (2 Bft) 100,00 %
29.08.2021 04:16 14,1 C 13,3 C 13,4 C 94 % 1020,0 hPa 0,0 l/m 0 min 0 min 0 W/m 9,7 km/h (2 Bft) 100,00 %
29.08.2021 04:18 14,1 C 13,3 C 13,4 C 94 % 1020,0 hPa 0,0 l/m 0 min 0 min 0 W/m 19,3 km/h (3 Bft) 100,00 %
29.08.2021 04:20 14,1 C 13,3 C 13,4 C 94 % 1020,0 hPa 0,0 l/m 0 min 0 min 0 W/m 9,7 km/h (2 Bft) 100,00 %
29.08.2021 04:22 14,1 C 13,3 C 13,4 C 94 % 1020,0 hPa 0,0 l/m 0 min 0 min 0 W/m 9,7 km/h (2 Bft) 97,87 %
29.08.2021 04:24 14,1 C 13,3 C 13,4 C 94 % 1020,0 hPa 0,0 l/m 0 min 0 min 0 W/m 9,7 km/h (2 Bft) 100,00 %
29.08.2021 04:26 14,1 C 13,3 C 13,4 C 94 % 1020,0 hPa 0,0 l/m 0 min 0 min 0 W/m 9,7 km/h (2 Bft) 93,62 %
29.08.2021 04:28 14,1 C 13,3 C 13,4 C 94 % 1020,0 hPa 0,0 l/m 0 min 0 min 0 W/m 6,4 km/h (2 Bft) 100,00 %
29.08.2021 04:30 14,1 C 13,3 C 13,4 C 94 % 1020,0 hPa 0,0 l/m 0 min 0 min 0 W/m 12,9 km/h (3 Bft) 97,87 %
29.08.2021 04:32 14,1 C 13,3 C 13,4 C 94 % 1019,9 hPa 0,0 l/m 0 min 0 min 0 W/m 9,7 km/h (2 Bft) 97,92 %
29.08.2021 04:34 14,2 C 13,3 C 13,4 C 94 % 1019,9 hPa 0,0 l/m 0 min 0 min 0 W/m 6,4 km/h (2 Bft) 97,87 %
29.08.2021 04:36 14,2 C 13,3 C 13,4 C 95 % 1019,9 hPa 0,0 l/m 0 min 0 min 0 W/m 9,7 km/h (2 Bft) 97,87 %
29.08.2021 04:38 14,2 C 13,3 C 13,4 C 95 % 1019,9 hPa 0,0 l/m 0 min 0 min 0 W/m 9,7 km/h (2 Bft) 91,49 %
29.08.2021 04:40 14,2 C 13,3 C 13,4 C 95 % 1019,9 hPa 0,0 l/m 0 min 0 min 0 W/m 3,2 km/h (1 Bft) 97,83 %
29.08.2021 04:42 14,2 C 13,3 C 13,4 C 95 % 1020,0 hPa 0,0 l/m 0 min 0 min 0 W/m 16,1 km/h (3 Bft) 97,87 %
29.08.2021 04:44 14,2 C 13,3 C 13,4 C 95 % 1020,0 hPa 0,0 l/m 0 min 0 min 0 W/m 16,1 km/h (3 Bft) 97,87 %
29.08.2021 04:46 14,2 C 13,3 C 13,4 C 95 % 1020,0 hPa 0,0 l/m 0 min 0 min 0 W/m 12,9 km/h (3 Bft) 97,87 %
29.08.2021 04:48 14,2 C 13,3 C 13,4 C 95 % 1019,9 hPa 0,0 l/m 0 min 0 min 0 W/m 9,7 km/h (2 Bft) 97,87 %
29.08.2021 04:50 14,2 C 13,9 C 13,4 C 95 % 1019,9 hPa 0,0 l/m 0 min 0 min 0 W/m 9,7 km/h (2 Bft) 97,87 %
29.08.2021 04:52 14,2 C 13,9 C 13,4 C 95 % 1019,9 hPa 0,0 l/m 0 min 0 min 0 W/m 6,4 km/h (2 Bft) 95,65 %
29.08.2021 04:54 14,2 C 13,9 C 13,4 C 95 % 1019,9 hPa 0,0 l/m 0 min 0 min 0 W/m 9,7 km/h (2 Bft) 97,87 %
29.08.2021 04:56 14,2 C 13,9 C 13,4 C 95 % 1019,9 hPa 0,0 l/m 0 min 0 min 0 W/m 6,4 km/h (2 Bft) 55,32 %
29.08.2021 04:58 14,2 C 13,9 C 13,4 C 95 % 1019,9 hPa 0,0 l/m 0 min 0 min 0 W/m 6,4 km/h (2 Bft) 97,87 %
29.08.2021 05:00 14,2 C 13,9 C 13,4 C 95 % 1019,8 hPa 0,0 l/m 0 min 0 min 0 W/m 9,7 km/h (2 Bft) 95,74 %
29.08.2021 05:02 14,2 C 13,9 C 13,4 C 95 % 1019,8 hPa 0,0 l/m 0 min 0 min 0 W/m 9,7 km/h (2 Bft) 97,87 %
29.08.2021 05:04 14,2 C 13,9 C 13,4 C 95 % 1019,8 hPa 0,0 l/m 0 min 0 min 0 W/m 6,4 km/h (2 Bft) 95,74 %
29.08.2021 05:06 14,2 C 13,9 C 13,4 C 95 % 1019,8 hPa 0,0 l/m 0 min 0 min 0 W/m 12,9 km/h (3 Bft) 100,00 %
29.08.2021 05:08 14,2 C 13,9 C 13,4 C 95 % 1019,8 hPa 0,0 l/m 0 min 0 min 0 W/m 12,9 km/h (3 Bft) 100,00 %
29.08.2021 05:10 14,2 C 13,9 C 13,4 C 95 % 1019,8 hPa 0,0 l/m 0 min 0 min 0 W/m 12,9 km/h (3 Bft) 100,00 %
29.08.2021 05:12 14,2 C 13,9 C 13,4 C 95 % 1019,8 hPa 0,0 l/m 0 min 0 min 0 W/m 12,9 km/h (3 Bft) 100,00 %
29.08.2021 05:14 14,2 C 13,9 C 13,4 C 95 % 1019,8 hPa 0,0 l/m 0 min 0 min 0 W/m 16,1 km/h (3 Bft) 97,83 %
29.08.2021 05:16 14,2 C 13,9 C 13,4 C 95 % 1019,8 hPa 0,0 l/m 0 min 0 min 0 W/m 12,9 km/h (3 Bft) 100,00 %
29.08.2021 05:18 14,2 C 13,9 C 13,4 C 95 % 1019,8 hPa 0,0 l/m 0 min 0 min 0 W/m 9,7 km/h (2 Bft) 100,00 %
29.08.2021 05:20 14,2 C 13,9 C 13,4 C 95 % 1019,8 hPa 0,0 l/m 0 min 0 min 0 W/m 12,9 km/h (3 Bft) 97,87 %
29.08.2021 05:22 14,2 C 13,9 C 13,4 C 95 % 1019,8 hPa 0,0 l/m 0 min 0 min 0 W/m 9,7 km/h (2 Bft) 97,87 %
29.08.2021 05:24 14,2 C 13,9 C 13,4 C 95 % 1019,8 hPa 0,0 l/m 0 min 0 min 0 W/m 16,1 km/h (3 Bft) 95,74 %
29.08.2021 05:26 14,2 C 13,9 C 13,4 C 95 % 1019,8 hPa 0,0 l/m 0 min 0 min 0 W/m 9,7 km/h (2 Bft) 95,65 %
29.08.2021 05:28 14,2 C 13,9 C 13,4 C 95 % 1019,8 hPa 0,0 l/m 0 min 0 min 0 W/m 12,9 km/h (3 Bft) 95,74 %
29.08.2021 05:30 14,2 C 13,9 C 13,4 C 95 % 1019,8 hPa 0,0 l/m 0 min 0 min 0 W/m 19,3 km/h (3 Bft) 97,87 %
29.08.2021 05:32 14,2 C 13,9 C 13,4 C 95 % 1019,8 hPa 0,0 l/m 0 min 0 min 0 W/m 12,9 km/h (3 Bft) 97,92 %
29.08.2021 05:34 14,2 C 13,9 C 13,4 C 95 % 1019,8 hPa 0,0 l/m 0 min 0 min 0 W/m 12,9 km/h (3 Bft) 97,87 %
29.08.2021 05:36 14,2 C 13,9 C 13,4 C 95 % 1019,7 hPa 0,0 l/m 0 min 0 min 0 W/m 16,1 km/h (3 Bft) 97,87 %
29.08.2021 05:38 14,2 C 13,9 C 13,4 C 95 % 1019,7 hPa 0,0 l/m 0 min 0 min 0 W/m 9,7 km/h (2 Bft) 95,74 %
29.08.2021 05:40 14,2 C 13,9 C 13,4 C 95 % 1019,7 hPa 0,0 l/m 0 min 0 min 0 W/m 16,1 km/h (3 Bft) 93,62 %
29.08.2021 05:42 14,2 C 13,9 C 13,4 C 95 % 1019,7 hPa 0,0 l/m 0 min 0 min 0 W/m 12,9 km/h (3 Bft) 95,74 %
29.08.2021 05:44 14,2 C 13,9 C 13,4 C 95 % 1019,7 hPa 0,0 l/m 0 min 0 min 0 W/m 9,7 km/h (2 Bft) 95,74 %
29.08.2021 05:46 14,2 C 13,9 C 13,4 C 95 % 1019,7 hPa 0,0 l/m 0 min 0 min 0 W/m 12,9 km/h (3 Bft) 95,74 %
29.08.2021 05:48 14,2 C 13,9 C 13,4 C 95 % 1019,6 hPa 0,0 l/m 0 min 0 min 0 W/m 9,7 km/h (2 Bft) 95,65 %
29.08.2021 05:50 14,2 C 13,9 C 13,4 C 95 % 1019,7 hPa 0,0 l/m 0 min 0 min 0 W/m 12,9 km/h (3 Bft) 97,87 %
29.08.2021 05:52 14,2 C 13,9 C 13,4 C 95 % 1019,7 hPa 0,0 l/m 0 min 0 min 0 W/m 12,9 km/h (3 Bft) 95,74 %
29.08.2021 05:54 14,2 C 13,9 C 13,4 C 95 % 1019,6 hPa 0,0 l/m 0 min 0 min 0 W/m 16,1 km/h (3 Bft) 93,62 %
29.08.2021 05:56 14,2 C 13,9 C 13,4 C 95 % 1019,6 hPa 0,0 l/m 0 min 0 min 0 W/m 9,7 km/h (2 Bft) 93,62 %
29.08.2021 05:58 14,2 C 13,9 C 13,4 C 95 % 1019,6 hPa 0,0 l/m 0 min 0 min 0 W/m 9,7 km/h (2 Bft) 95,74 %
29.08.2021 06:00 14,2 C 13,9 C 13,4 C 95 % 1019,6 hPa 0,0 l/m 0 min 0 min 0 W/m 12,9 km/h (3 Bft) 95,65 %
29.08.2021 06:02 14,2 C 13,9 C 13,4 C 95 % 1019,6 hPa 0,0 l/m 0 min 0 min 0 W/m 16,1 km/h (3 Bft) 96,23 %
29.08.2021 06:04 14,2 C 13,9 C 13,4 C 95 % 1019,6 hPa 0,0 l/m 0 min 0 min 0 W/m 12,9 km/h (3 Bft) 95,74 %
29.08.2021 06:08 14,2 C 13,9 C 13,4 C 95 % 1019,6 hPa 0,0 l/m 0 min 0 min 0 W/m 25,7 km/h (4 Bft) 96,55 %
29.08.2021 06:10 14,3 C 13,9 C 13,4 C 95 % 1019,6 hPa 0,0 l/m 0 min 0 min 0 W/m 12,9 km/h (3 Bft) 97,87 %
29.08.2021 06:12 14,3 C 13,9 C 13,4 C 95 % 1019,6 hPa 0,0 l/m 0 min 0 min 0 W/m 19,3 km/h (3 Bft) 95,65 %
29.08.2021 06:14 14,3 C 13,9 C 13,4 C 95 % 1019,6 hPa 0,0 l/m 0 min 0 min 0 W/m 16,1 km/h (3 Bft) 97,87 %
29.08.2021 06:16 14,3 C 13,9 C 13,4 C 95 % 1019,6 hPa 0,0 l/m 0 min 0 min 0 W/m 12,9 km/h (3 Bft) 97,87 %
29.08.2021 06:18 14,3 C 13,9 C 13,4 C 95 % 1019,5 hPa 0,0 l/m 0 min 0 min 0 W/m 9,7 km/h (2 Bft) 97,87 %
29.08.2021 06:20 14,3 C 13,9 C 13,4 C 95 % 1019,6 hPa 0,0 l/m 0 min 0 min 0 W/m 6,4 km/h (2 Bft) 95,74 %
29.08.2021 06:22 14,4 C 13,9 C 13,4 C 95 % 1019,5 hPa 0,0 l/m 0 min 0 min 0 W/m 12,9 km/h (3 Bft) 95,74 %
29.08.2021 06:24 14,4 C 13,9 C 13,4 C 95 % 1019,5 hPa 0,0 l/m 0 min 0 min 0 W/m 12,9 km/h (3 Bft) 95,65 %
29.08.2021 06:26 14,4 C 13,9 C 13,4 C 95 % 1019,4 hPa 0,0 l/m 0 min 0 min 0 W/m 19,3 km/h (3 Bft) 95,74 %
29.08.2021 06:28 14,4 C 13,9 C 13,4 C 95 % 1019,5 hPa 0,0 l/m 0 min 0 min 0 W/m 12,9 km/h (3 Bft) 97,87 %
29.08.2021 06:30 14,4 C 13,9 C 13,4 C 95 % 1019,5 hPa 0,0 l/m 0 min 0 min 0 W/m 9,7 km/h (2 Bft) 97,87 %
29.08.2021 06:32 14,4 C 13,9 C 13,4 C 95 % 1019,4 hPa 0,0 l/m 0 min 0 min 0 W/m 6,4 km/h (2 Bft) 93,62 %
29.08.2021 06:34 14,4 C 13,9 C 13,4 C 95 % 1019,4 hPa 0,0 l/m 0 min 0 min 0 W/m 9,7 km/h (2 Bft) 95,74 %
29.08.2021 06:36 14,4 C 13,9 C 13,4 C 95 % 1019,4 hPa 0,0 l/m 0 min 0 min 0 W/m 12,9 km/h (3 Bft) 97,83 %
29.08.2021 06:38 14,4 C 13,9 C 13,4 C 95 % 1019,4 hPa 0,0 l/m 0 min 0 min 0 W/m 6,4 km/h (2 Bft) 97,87 %
29.08.2021 06:40 14,4 C 13,9 C 13,4 C 95 % 1019,4 hPa 0,0 l/m 0 min 0 min 0 W/m 12,9 km/h (3 Bft) 97,87 %
29.08.2021 06:42 14,4 C 13,9 C 13,4 C 95 % 1019,4 hPa 0,0 l/m 0 min 0 min 0 W/m 6,4 km/h (2 Bft) 95,74 %
29.08.2021 06:44 14,4 C 13,9 C 13,4 C 95 % 1019,4 hPa 0,0 l/m 0 min 0 min 0 W/m 6,4 km/h (2 Bft) 97,87 %
29.08.2021 06:46 14,4 C 13,9 C 13,4 C 95 % 1019,4 hPa 0,0 l/m 0 min 0 min 0 W/m 9,7 km/h (2 Bft) 97,83 %
29.08.2021 06:48 14,4 C 13,9 C 13,4 C 95 % 1019,5 hPa 0,0 l/m 0 min 0 min 0 W/m 12,9 km/h (3 Bft) 97,87 %
29.08.2021 06:50 14,4 C 13,9 C 13,4 C 95 % 1019,4 hPa 0,0 l/m 0 min 0 min 0 W/m 9,7 km/h (2 Bft) 97,87 %
29.08.2021 06:52 14,4 C 13,9 C 13,4 C 95 % 1019,4 hPa 0,0 l/m 0 min 0 min 0 W/m 9,7 km/h (2 Bft) 97,87 %
29.08.2021 06:54 14,4 C 13,9 C 13,4 C 95 % 1019,4 hPa 0,0 l/m 0 min 0 min 0 W/m 12,9 km/h (3 Bft) 97,87 %
29.08.2021 06:56 14,4 C 13,9 C 13,4 C 95 % 1019,4 hPa 0,0 l/m 0 min 0 min 2 W/m 9,7 km/h (2 Bft) 97,87 %
29.08.2021 06:58 14,4 C 13,9 C 13,4 C 95 % 1019,4 hPa 0,0 l/m 0 min 0 min 5 W/m 9,7 km/h (2 Bft) 97,83 %
29.08.2021 07:00 14,4 C 13,9 C 13,4 C 95 % 1019,4 hPa 0,0 l/m 0 min 0 min 7 W/m 9,7 km/h (2 Bft) 100,00 %
29.08.2021 07:02 14,4 C 13,9 C 13,4 C 95 % 1019,4 hPa 0,0 l/m 0 min 0 min 9 W/m 9,7 km/h (2 Bft) 100,00 %
29.08.2021 07:04 14,4 C 13,9 C 13,4 C 95 % 1019,4 hPa 0,0 l/m 0 min 0 min 9 W/m 9,7 km/h (2 Bft) 100,00 %
29.08.2021 07:06 14,4 C 13,9 C 13,4 C 95 % 1019,4 hPa 0,0 l/m 0 min 0 min 11 W/m 12,9 km/h (3 Bft) 100,00 %
29.08.2021 07:08 14,4 C 13,9 C 13,4 C 95 % 1019,5 hPa 0,0 l/m 0 min 0 min 11 W/m 12,9 km/h (3 Bft) 97,87 %
29.08.2021 07:10 14,4 C 13,9 C 13,4 C 95 % 1019,4 hPa 0,0 l/m 0 min 0 min 11 W/m 16,1 km/h (3 Bft) 97,83 %
29.08.2021 07:12 14,4 C 13,9 C 13,4 C 95 % 1019,4 hPa 0,0 l/m 0 min 0 min 12 W/m 16,1 km/h (3 Bft) 100,00 %
29.08.2021 07:14 14,4 C 13,9 C 13,9 C 95 % 1019,5 hPa 0,0 l/m 0 min 0 min 12 W/m 12,9 km/h (3 Bft) 100,00 %
29.08.2021 07:16 14,4 C 13,9 C 13,9 C 95 % 1019,5 hPa 0,0 l/m 0 min 0 min 12 W/m 16,1 km/h (3 Bft) 100,00 %
29.08.2021 07:18 14,4 C 13,9 C 13,9 C 95 % 1019,5 hPa 0,0 l/m 0 min 0 min 14 W/m 12,9 km/h (3 Bft) 100,00 %
29.08.2021 07:20 14,4 C 13,9 C 13,9 C 95 % 1019,5 hPa 0,0 l/m 0 min 0 min 14 W/m 9,7 km/h (2 Bft) 100,00 %
29.08.2021 07:22 14,4 C 13,9 C 13,9 C 95 % 1019,5 hPa 0,0 l/m 0 min 0 min 16 W/m 16,1 km/h (3 Bft) 100,00 %
29.08.2021 07:24 14,5 C 13,9 C 13,9 C 95 % 1019,5 hPa 0,0 l/m 0 min 0 min 18 W/m 6,4 km/h (2 Bft) 100,00 %
29.08.2021 07:26 14,5 C 13,9 C 13,9 C 95 % 1019,5 hPa 0,0 l/m 0 min 0 min 20 W/m 12,9 km/h (3 Bft) 100,00 %
29.08.2021 07:28 14,5 C 13,9 C 13,9 C 95 % 1019,5 hPa 0,0 l/m 0 min 0 min 21 W/m 16,1 km/h (3 Bft) 100,00 %
29.08.2021 07:30 14,5 C 13,9 C 13,9 C 95 % 1019,4 hPa 0,0 l/m 0 min 0 min 24 W/m 16,1 km/h (3 Bft) 100,00 %
29.08.2021 07:32 14,5 C 13,9 C 13,9 C 95 % 1019,4 hPa 0,0 l/m 0 min 0 min 27 W/m 12,9 km/h (3 Bft) 100,00 %
29.08.2021 07:34 14,5 C 13,9 C 13,9 C 95 % 1019,4 hPa 0,0 l/m 0 min 0 min 27 W/m 12,9 km/h (3 Bft) 100,00 %
29.08.2021 07:36 14,5 C 13,9 C 13,9 C 95 % 1019,5 hPa 0,0 l/m 0 min 0 min 29 W/m 12,9 km/h (3 Bft) 100,00 %
29.08.2021 07:38 14,5 C 13,9 C 13,9 C 95 % 1019,5 hPa 0,0 l/m 0 min 0 min 32 W/m 16,1 km/h (3 Bft) 100,00 %
29.08.2021 07:40 14,5 C 14,4 C 13,9 C 95 % 1019,5 hPa 0,0 l/m 0 min 0 min 32 W/m 12,9 km/h (3 Bft) 100,00 %
29.08.2021 07:42 14,6 C 14,4 C 13,9 C 95 % 1019,5 hPa 0,0 l/m 0 min 0 min 33 W/m 12,9 km/h (3 Bft) 100,00 %
29.08.2021 07:44 14,6 C 14,4 C 13,9 C 95 % 1019,5 hPa 0,0 l/m 0 min 0 min 32 W/m 6,4 km/h (2 Bft) 100,00 %
29.08.2021 07:46 14,6 C 14,4 C 13,9 C 95 % 1019,5 hPa 0,0 l/m 0 min 0 min 33 W/m 9,7 km/h (2 Bft) 100,00 %
29.08.2021 07:48 14,6 C 14,4 C 13,9 C 95 % 1019,5 hPa 0,0 l/m 0 min 0 min 35 W/m 9,7 km/h (2 Bft) 100,00 %
29.08.2021 07:50 14,6 C 14,4 C 13,9 C 95 % 1019,5 hPa 0,0 l/m 0 min 0 min 36 W/m 12,9 km/h (3 Bft) 97,87 %
29.08.2021 07:52 14,6 C 14,4 C 13,9 C 95 % 1019,5 hPa 0,0 l/m 0 min 0 min 36 W/m 12,9 km/h (3 Bft) 100,00 %
29.08.2021 07:54 14,6 C 14,4 C 13,9 C 95 % 1019,5 hPa 0,0 l/m 0 min 0 min 31 W/m 19,3 km/h (3 Bft) 100,00 %
29.08.2021 07:56 14,6 C 14,4 C 13,9 C 95 % 1019,5 hPa 0,0 l/m 0 min 0 min 31 W/m 12,9 km/h (3 Bft) 100,00 %
29.08.2021 07:58 14,6 C 14,4 C 13,9 C 95 % 1019,5 hPa 0,0 l/m 0 min 0 min 36 W/m 12,9 km/h (3 Bft) 100,00 %
29.08.2021 08:00 14,7 C 14,4 C 13,9 C 95 % 1019,4 hPa 0,0 l/m 0 min 0 min 37 W/m 12,9 km/h (3 Bft) 96,00 %
29.08.2021 08:02 14,7 C 14,4 C 13,9 C 95 % 1019,5 hPa 0,0 l/m 0 min 0 min 39 W/m 9,7 km/h (2 Bft) 100,00 %
29.08.2021 08:04 14,7 C 14,4 C 13,9 C 94 % 1019,4 hPa 0,0 l/m 0 min 0 min 39 W/m 9,7 km/h (2 Bft) 100,00 %
29.08.2021 08:06 14,7 C 14,4 C 13,9 C 94 % 1019,5 hPa 0,0 l/m 0 min 0 min 34 W/m 9,7 km/h (2 Bft) 100,00 %
29.08.2021 08:08 14,8 C 14,4 C 13,9 C 94 % 1019,5 hPa 0,0 l/m 0 min 0 min 32 W/m 16,1 km/h (3 Bft) 100,00 %
29.08.2021 08:10 14,8 C 14,4 C 13,9 C 94 % 1019,5 hPa 0,0 l/m 0 min 0 min 36 W/m 6,4 km/h (2 Bft) 97,87 %
29.08.2021 08:12 14,8 C 14,4 C 13,9 C 94 % 1019,5 hPa 0,0 l/m 0 min 0 min 44 W/m 9,7 km/h (2 Bft) 95,74 %
29.08.2021 08:14 14,8 C 14,4 C 13,9 C 94 % 1019,5 hPa 0,0 l/m 0 min 0 min 51 W/m 6,4 km/h (2 Bft) 97,87 %
29.08.2021 08:16 14,8 C 14,4 C 13,9 C 94 % 1019,5 hPa 0,0 l/m 0 min 0 min 52 W/m 16,1 km/h (3 Bft) 96,00 %
29.08.2021 08:18 14,8 C 14,4 C 13,9 C 94 % 1019,5 hPa 0,0 l/m 0 min 0 min 49 W/m 6,4 km/h (2 Bft) 97,87 %
29.08.2021 08:20 14,8 C 14,4 C 13,9 C 94 % 1019,6 hPa 0,0 l/m 0 min 0 min 47 W/m 12,9 km/h (3 Bft) 97,22 %
29.08.2021 08:22 14,8 C 14,4 C 13,9 C 94 % 1019,6 hPa 0,0 l/m 0 min 0 min 45 W/m 12,9 km/h (3 Bft) 95,65 %
29.08.2021 08:24 14,8 C 14,4 C 13,9 C 94 % 1019,5 hPa 0,0 l/m 0 min 0 min 39 W/m 16,1 km/h (3 Bft) 95,74 %
29.08.2021 08:26 14,9 C 14,4 C 13,9 C 94 % 1019,5 hPa 0,0 l/m 0 min 0 min 38 W/m 9,7 km/h (2 Bft) 94,55 %
29.08.2021 08:28 14,9 C 14,4 C 14,5 C 94 % 1019,5 hPa 0,0 l/m 0 min 0 min 36 W/m 16,1 km/h (3 Bft) 94,00 %
29.08.2021 08:30 14,9 C 14,4 C 13,9 C 94 % 1019,4 hPa 0,0 l/m 0 min 0 min 42 W/m 9,7 km/h (2 Bft) 93,48 %
29.08.2021 08:32 14,9 C 14,4 C 14,5 C 94 % 1019,4 hPa 0,0 l/m 0 min 0 min 50 W/m 6,4 km/h (2 Bft) 89,58 %
29.08.2021 08:34 14,9 C 14,4 C 14,5 C 94 % 1019,4 hPa 0,0 l/m 0 min 0 min 60 W/m 9,7 km/h (2 Bft) 95,74 %
29.08.2021 08:36 14,9 C 14,4 C 14,5 C 94 % 1019,4 hPa 0,0 l/m 0 min 0 min 67 W/m 9,7 km/h (2 Bft) 93,62 %
29.08.2021 08:38 14,9 C 14,4 C 14,5 C 94 % 1019,4 hPa 0,0 l/m 0 min 0 min 69 W/m 19,3 km/h (3 Bft) 93,62 %
29.08.2021 08:40 14,9 C 14,4 C 14,5 C 94 % 1019,4 hPa 0,0 l/m 0 min 0 min 69 W/m 12,9 km/h (3 Bft) 91,49 %
29.08.2021 08:42 15,0 C 14,4 C 14,5 C 94 % 1019,4 hPa 0,0 l/m 0 min 0 min 66 W/m 12,9 km/h (3 Bft) 93,48 %
29.08.2021 08:44 15,0 C 14,4 C 14,5 C 94 % 1019,4 hPa 0,0 l/m 0 min 0 min 61 W/m 12,9 km/h (3 Bft) 93,62 %
29.08.2021 08:45 15,0 C 14,4 C 14,5 C 94 % 1019,4 hPa 0,0 l/m 0 min 0 min 56 W/m 9,7 km/h (2 Bft) 89,36 %
29.08.2021 08:48 15,0 C 14,4 C 14,5 C 94 % 1019,3 hPa 0,0 l/m 0 min 0 min 53 W/m 12,9 km/h (3 Bft) 93,62 %
29.08.2021 08:50 15,0 C 14,4 C 14,5 C 94 % 1019,3 hPa 0,0 l/m 0 min 0 min 52 W/m 12,9 km/h (3 Bft) 93,62 %
29.08.2021 08:52 15,0 C 14,4 C 14,5 C 94 % 1019,3 hPa 0,0 l/m 0 min 0 min 52 W/m 16,1 km/h (3 Bft) 94,29 %
29.08.2021 08:54 15,0 C 15,0 C 14,5 C 94 % 1019,3 hPa 0,0 l/m 0 min 0 min 53 W/m 16,1 km/h (3 Bft) 93,10 %
29.08.2021 08:56 15,0 C 14,4 C 14,5 C 94 % 1019,3 hPa 0,0 l/m 0 min 0 min 54 W/m 12,9 km/h (3 Bft) 91,49 %
29.08.2021 08:58 15,0 C 15,0 C 14,5 C 94 % 1019,3 hPa 0,0 l/m 0 min 0 min 56 W/m 16,1 km/h (3 Bft) 94,29 %
29.08.2021 09:00 15,1 C 15,0 C 14,5 C 94 % 1019,3 hPa 0,0 l/m 0 min 0 min 60 W/m 16,1 km/h (3 Bft) 96,61 %
29.08.2021 09:02 15,1 C 15,0 C 14,5 C 94 % 1019,3 hPa 0,0 l/m 0 min 0 min 65 W/m 16,1 km/h (3 Bft) 97,14 %
29.08.2021 09:04 15,1 C 15,0 C 14,5 C 94 % 1019,2 hPa 0,0 l/m 0 min 0 min 67 W/m 12,9 km/h (3 Bft) 98,11 %
29.08.2021 09:06 15,1 C 15,0 C 14,5 C 94 % 1019,3 hPa 0,0 l/m 0 min 0 min 70 W/m 16,1 km/h (3 Bft) 95,74 %
29.08.2021 09:08 15,1 C 15,0 C 14,5 C 94 % 1019,3 hPa 0,0 l/m 0 min 0 min 73 W/m 16,1 km/h (3 Bft) 97,83 %
29.08.2021 09:10 15,1 C 15,0 C 14,5 C 94 % 1019,3 hPa 0,0 l/m 0 min 0 min 72 W/m 9,7 km/h (2 Bft) 95,74 %
29.08.2021 09:12 15,1 C 15,0 C 14,5 C 94 % 1019,3 hPa 0,0 l/m 0 min 0 min 72 W/m 9,7 km/h (2 Bft) 97,87 %
29.08.2021 09:14 15,2 C 15,0 C 14,5 C 93 % 1019,2 hPa 0,0 l/m 0 min 0 min 72 W/m 12,9 km/h (3 Bft) 97,87 %
29.08.2021 09:16 15,2 C 15,0 C 14,5 C 94 % 1019,2 hPa 0,0 l/m 0 min 0 min 78 W/m 9,7 km/h (2 Bft) 100,00 %
29.08.2021 09:18 15,2 C 15,0 C 14,5 C 94 % 1019,2 hPa 0,0 l/m 0 min 0 min 90 W/m 16,1 km/h (3 Bft) 98,08 %
29.08.2021 09:20 15,3 C 15,0 C 14,5 C 94 % 1019,2 hPa 0,0 l/m 0 min 0 min 90 W/m 12,9 km/h (3 Bft) 100,00 %
29.08.2021 09:22 15,3 C 15,0 C 14,5 C 94 % 1019,2 hPa 0,0 l/m 0 min 0 min 78 W/m 9,7 km/h (2 Bft) 100,00 %
29.08.2021 09:24 15,3 C 15,0 C 14,5 C 94 % 1019,2 hPa 0,0 l/m 0 min 0 min 62 W/m 9,7 km/h (2 Bft) 95,74 %
29.08.2021 09:26 15,3 C 15,0 C 14,5 C 94 % 1019,2 hPa 0,0 l/m 0 min 0 min 55 W/m 12,9 km/h (3 Bft) 100,00 %
29.08.2021 09:28 15,3 C 15,0 C 14,5 C 93 % 1019,2 hPa 0,0 l/m 0 min 0 min 48 W/m 12,9 km/h (3 Bft) 100,00 %
29.08.2021 09:30 15,3 C 15,0 C 14,5 C 93 % 1019,1 hPa 0,0 l/m 0 min 0 min 39 W/m 12,9 km/h (3 Bft) 100,00 %
29.08.2021 09:32 15,3 C 15,0 C 14,5 C 93 % 1019,2 hPa 0,0 l/m 0 min 0 min 39 W/m 12,9 km/h (3 Bft) 100,00 %
29.08.2021 09:34 15,3 C 15,0 C 14,5 C 93 % 1019,2 hPa 0,0 l/m 0 min 0 min 42 W/m 6,4 km/h (2 Bft) 100,00 %
29.08.2021 09:36 15,3 C 15,0 C 14,5 C 93 % 1019,2 hPa 0,0 l/m 0 min 0 min 44 W/m 9,7 km/h (2 Bft) 100,00 %
29.08.2021 09:38 15,3 C 15,0 C 14,5 C 93 % 1019,2 hPa 0,0 l/m 0 min 0 min 47 W/m 12,9 km/h (3 Bft) 100,00 %
29.08.2021 09:40 15,3 C 15,0 C 14,5 C 93 % 1019,2 hPa 0,0 l/m 0 min 0 min 47 W/m 16,1 km/h (3 Bft) 100,00 %
29.08.2021 09:42 15,3 C 15,0 C 14,5 C 93 % 1019,2 hPa 0,0 l/m 0 min 0 min 47 W/m 6,4 km/h (2 Bft) 97,83 %
29.08.2021 09:44 15,3 C 15,0 C 14,5 C 93 % 1019,2 hPa 0,0 l/m 0 min 0 min 48 W/m 6,4 km/h (2 Bft) 100,00 %
29.08.2021 09:46 15,3 C 15,0 C 14,5 C 93 % 1019,2 hPa 0,0 l/m 0 min 0 min 51 W/m 12,9 km/h (3 Bft) 100,00 %
29.08.2021 09:48 15,3 C 15,0 C 14,5 C 93 % 1019,2 hPa 0,0 l/m 0 min 0 min 51 W/m 9,7 km/h (2 Bft) 100,00 %
29.08.2021 09:50 15,3 C 15,0 C 14,5 C 93 % 1019,2 hPa 0,0 l/m 0 min 0 min 49 W/m 19,3 km/h (3 Bft) 100,00 %
29.08.2021 09:52 15,3 C 15,0 C 14,5 C 93 % 1019,2 hPa 0,0 l/m 0 min 0 min 46 W/m 9,7 km/h (2 Bft) 100,00 %
29.08.2021 09:54 15,3 C 15,0 C 14,5 C 93 % 1019,2 hPa 0,0 l/m 0 min 0 min 46 W/m 9,7 km/h (2 Bft) 100,00 %
29.08.2021 09:56 15,3 C 15,0 C 14,5 C 93 % 1019,2 hPa 0,0 l/m 0 min 0 min 46 W/m 6,4 km/h (2 Bft) 100,00 %
29.08.2021 09:58 15,3 C 15,0 C 14,5 C 93 % 1019,2 hPa 0,0 l/m 0 min 0 min 49 W/m 12,9 km/h (3 Bft) 100,00 %
29.08.2021 10:00 15,3 C 15,0 C 14,5 C 93 % 1019,2 hPa 0,0 l/m 0 min 0 min 53 W/m 16,1 km/h (3 Bft) 100,00 %
29.08.2021 10:02 15,3 C 15,0 C 14,5 C 93 % 1019,3 hPa 0,0 l/m 0 min 0 min 55 W/m 9,7 km/h (2 Bft) 100,00 %
29.08.2021 10:04 15,4 C 15,0 C 14,5 C 93 % 1019,2 hPa 0,0 l/m 0 min 0 min 54 W/m 16,1 km/h (3 Bft) 100,00 %
29.08.2021 10:06 15,4 C 15,0 C 14,5 C 93 % 1019,3 hPa 0,0 l/m 0 min 0 min 50 W/m 6,4 km/h (2 Bft) 100,00 %
29.08.2021 10:08 15,4 C 15,0 C 14,5 C 93 % 1019,2 hPa 0,0 l/m 0 min 0 min 38 W/m 12,9 km/h (3 Bft) 100,00 %
29.08.2021 10:10 15,4 C 15,0 C 14,5 C 93 % 1019,2 hPa 0,0 l/m 0 min 0 min 32 W/m 12,9 km/h (3 Bft) 100,00 %
29.08.2021 10:12 15,4 C 15,0 C 14,5 C 93 % 1019,2 hPa 0,0 l/m 0 min 0 min 30 W/m 12,9 km/h (3 Bft) 100,00 %
29.08.2021 10:14 15,4 C 15,0 C 14,5 C 93 % 1019,2 hPa 0,0 l/m 0 min 0 min 32 W/m 19,3 km/h (3 Bft) 95,74 %
29.08.2021 10:16 15,4 C 14,4 C 14,5 C 93 % 1019,1 hPa 0,0 l/m 0 min 0 min 38 W/m 9,7 km/h (2 Bft) 100,00 %
29.08.2021 10:18 15,4 C 14,4 C 14,5 C 93 % 1019,2 hPa 0,0 l/m 0 min 0 min 36 W/m 12,9 km/h (3 Bft) 100,00 %
29.08.2021 10:20 15,4 C 14,4 C 13,9 C 93 % 1019,1 hPa 0,0 l/m 0 min 0 min 37 W/m 12,9 km/h (3 Bft) 100,00 %
29.08.2021 10:22 15,4 C 14,4 C 13,9 C 93 % 1019,2 hPa 0,0 l/m 0 min 0 min 39 W/m 12,9 km/h (3 Bft) 100,00 %
29.08.2021 10:24 15,4 C 14,4 C 13,9 C 93 % 1019,3 hPa 0,0 l/m 0 min 2 min 50 W/m 6,4 km/h (2 Bft) 97,87 %
29.08.2021 10:26 15,4 C 14,4 C 13,9 C 94 % 1019,3 hPa 0,0 l/m 0 min 2 min 61 W/m 16,1 km/h (3 Bft) 95,74 %
29.08.2021 10:28 15,4 C 14,4 C 13,9 C 94 % 1019,3 hPa 0,0 l/m 0 min 2 min 53 W/m 16,1 km/h (3 Bft) 97,83 %
29.08.2021 10:30 15,3 C 14,4 C 13,9 C 94 % 1019,3 hPa 0,2 l/m 0 min 2 min 52 W/m 22,5 km/h (4 Bft) 95,74 %
29.08.2021 10:32 15,3 C 14,4 C 13,9 C 94 % 1019,3 hPa 0,0 l/m 0 min 2 min 55 W/m 19,3 km/h (3 Bft) 97,87 %
29.08.2021 10:34 15,3 C 14,4 C 13,9 C 94 % 1019,3 hPa 0,0 l/m 0 min 0 min 87 W/m 19,3 km/h (3 Bft) 97,87 %
29.08.2021 10:36 15,3 C 14,4 C 13,9 C 94 % 1019,3 hPa 0,0 l/m 0 min 0 min 98 W/m 22,5 km/h (4 Bft) 97,87 %
29.08.2021 10:38 15,3 C 14,4 C 13,9 C 94 % 1019,3 hPa 0,0 l/m 0 min 0 min 65 W/m 22,5 km/h (4 Bft) 95,83 %
29.08.2021 10:40 15,2 C 14,4 C 13,9 C 94 % 1019,3 hPa 0,2 l/m 0 min 2 min 84 W/m 16,1 km/h (3 Bft) 97,87 %
29.08.2021 10:42 15,2 C 14,4 C 13,9 C 94 % 1019,3 hPa 0,0 l/m 0 min 0 min 103 W/m 19,3 km/h (3 Bft) 97,87 %
29.08.2021 10:44 15,1 C 14,4 C 13,9 C 94 % 1019,3 hPa 0,0 l/m 0 min 0 min 115 W/m 16,1 km/h (3 Bft) 97,87 %
29.08.2021 10:46 15,1 C 14,4 C 13,9 C 94 % 1019,3 hPa 0,0 l/m 0 min 0 min 145 W/m 9,7 km/h (2 Bft) 97,87 %
29.08.2021 10:48 15,2 C 14,4 C 13,9 C 94 % 1019,2 hPa 0,0 l/m 0 min 0 min 165 W/m 9,7 km/h (2 Bft) 97,87 %
29.08.2021 10:50 15,2 C 14,4 C 13,9 C 95 % 1019,3 hPa 0,0 l/m 0 min 0 min 176 W/m 16,1 km/h (3 Bft) 97,83 %
29.08.2021 10:52 15,2 C 15,0 C 13,9 C 95 % 1019,3 hPa 0,0 l/m 0 min 0 min 182 W/m 19,3 km/h (3 Bft) 97,87 %
29.08.2021 10:54 15,2 C 15,0 C 13,9 C 95 % 1019,3 hPa 0,2 l/m 0 min 2 min 185 W/m 22,5 km/h (4 Bft) 97,87 %
29.08.2021 10:56 15,2 C 14,4 C 13,9 C 95 % 1019,2 hPa 0,0 l/m 0 min 2 min 175 W/m 19,3 km/h (3 Bft) 93,62 %
29.08.2021 10:58 15,1 C 14,4 C 13,9 C 95 % 1019,2 hPa 0,0 l/m 0 min 2 min 162 W/m 16,1 km/h (3 Bft) 100,00 %
29.08.2021 11:00 15,1 C 14,4 C 13,9 C 95 % 1019,3 hPa 0,0 l/m 0 min 0 min 143 W/m 9,7 km/h (2 Bft) 100,00 %
29.08.2021 11:02 15,1 C 14,4 C 13,9 C 95 % 1019,2 hPa 0,0 l/m 0 min 0 min 138 W/m 12,9 km/h (3 Bft) 100,00 %
29.08.2021 11:04 15,1 C 14,4 C 13,9 C 95 % 1019,2 hPa 0,0 l/m 0 min 0 min 134 W/m 16,1 km/h (3 Bft) 97,87 %
29.08.2021 11:06 15,1 C 14,4 C 13,9 C 95 % 1019,2 hPa 0,0 l/m 0 min 0 min 119 W/m 12,9 km/h (3 Bft) 100,00 %
29.08.2021 11:08 15,1 C 14,4 C 13,9 C 95 % 1019,3 hPa 0,0 l/m 0 min 0 min 102 W/m 9,7 km/h (2 Bft) 100,00 %
29.08.2021 11:10 15,1 C 14,4 C 13,9 C 95 % 1019,3 hPa 0,0 l/m 0 min 2 min 93 W/m 9,7 km/h (2 Bft) 97,87 %
29.08.2021 11:12 15,1 C 14,4 C 13,9 C 95 % 1019,2 hPa 0,2 l/m 0 min 2 min 100 W/m 16,1 km/h (3 Bft) 97,87 %
29.08.2021 11:14 15,1 C 14,4 C 13,9 C 95 % 1019,2 hPa 0,0 l/m 0 min 2 min 79 W/m 12,9 km/h (3 Bft) 97,83 %
29.08.2021 11:16 15,1 C 14,4 C 13,9 C 95 % 1019,2 hPa 0,0 l/m 0 min 2 min 62 W/m 19,3 km/h (3 Bft) 97,87 %
29.08.2021 11:18 15,1 C 14,4 C 13,9 C 95 % 1019,2 hPa 0,0 l/m 0 min 0 min 64 W/m 16,1 km/h (3 Bft) 95,74 %
29.08.2021 11:20 15,1 C 14,4 C 13,9 C 95 % 1019,2 hPa 0,0 l/m 0 min 0 min 84 W/m 9,7 km/h (2 Bft) 95,74 %
29.08.2021 11:22 15,1 C 14,4 C 13,9 C 96 % 1019,1 hPa 0,0 l/m 0 min 0 min 102 W/m 16,1 km/h (3 Bft) 93,62 %
29.08.2021 11:24 15,1 C 14,4 C 13,9 C 96 % 1019,1 hPa 0,0 l/m 0 min 0 min 116 W/m 19,3 km/h (3 Bft) 95,74 %
29.08.2021 11:26 15,1 C 14,4 C 13,9 C 96 % 1019,1 hPa 0,0 l/m 0 min 0 min 132 W/m 9,7 km/h (2 Bft) 95,65 %
29.08.2021 11:28 15,1 C 14,4 C 13,9 C 96 % 1019,1 hPa 0,0 l/m 0 min 0 min 141 W/m 19,3 km/h (3 Bft) 91,49 %
29.08.2021 11:30 15,1 C 14,4 C 13,9 C 96 % 1019,1 hPa 0,0 l/m 0 min 0 min 132 W/m 16,1 km/h (3 Bft) 95,74 %
29.08.2021 11:32 15,1 C 14,4 C 14,5 C 96 % 1019,1 hPa 0,2 l/m 0 min 2 min 130 W/m 16,1 km/h (3 Bft) 95,74 %
29.08.2021 11:34 15,2 C 14,4 C 13,9 C 96 % 1019,1 hPa 0,0 l/m 0 min 2 min 121 W/m 16,1 km/h (3 Bft) 95,74 %
29.08.2021 11:36 15,2 C 14,4 C 13,9 C 96 % 1019,1 hPa 0,0 l/m 0 min 0 min 107 W/m 16,1 km/h (3 Bft) 93,62 %
29.08.2021 11:38 15,1 C 14,4 C 13,9 C 96 % 1019,1 hPa 0,0 l/m 0 min 0 min 115 W/m 29,0 km/h (5 Bft) 95,65 %
29.08.2021 11:40 15,1 C 14,4 C 13,9 C 96 % 1019,1 hPa 0,0 l/m 0 min 0 min 136 W/m 16,1 km/h (3 Bft) 93,62 %
29.08.2021 11:42 15,1 C 14,4 C 14,5 C 96 % 1019,1 hPa 0,0 l/m 0 min 0 min 154 W/m 9,7 km/h (2 Bft) 93,62 %
29.08.2021 11:44 15,1 C 14,4 C 14,5 C 96 % 1019,1 hPa 0,0 l/m 0 min 0 min 129 W/m 12,9 km/h (3 Bft) 95,74 %
29.08.2021 11:46 15,1 C 14,4 C 14,5 C 96 % 1019,1 hPa 0,0 l/m 0 min 0 min 106 W/m 9,7 km/h (2 Bft) 95,74 %
29.08.2021 11:48 15,1 C 14,4 C 14,5 C 96 % 1019,1 hPa 0,0 l/m 0 min 0 min 133 W/m 16,1 km/h (3 Bft) 95,65 %
29.08.2021 11:50 15,1 C 14,4 C 13,9 C 96 % 1019,1 hPa 0,0 l/m 0 min 0 min 116 W/m 16,1 km/h (3 Bft) 95,74 %
29.08.2021 11:52 15,1 C 14,4 C 14,5 C 96 % 1019,1 hPa 0,2 l/m 0 min 0 min 116 W/m 12,9 km/h (3 Bft) 95,74 %
29.08.2021 11:54 15,1 C 14,4 C 13,9 C 96 % 1019,1 hPa 0,0 l/m 0 min 0 min 89 W/m 25,7 km/h (4 Bft) 95,74 %
29.08.2021 11:56 15,1 C 14,4 C 13,9 C 96 % 1019,1 hPa 0,0 l/m 0 min 0 min 88 W/m 19,3 km/h (3 Bft) 95,74 %
29.08.2021 11:58 15,1 C 14,4 C 13,9 C 96 % 1019,1 hPa 0,0 l/m 0 min 0 min 91 W/m 16,1 km/h (3 Bft) 95,74 %
29.08.2021 12:00 15,0 C 14,4 C 13,9 C 96 % 1019,1 hPa 0,0 l/m 0 min 2 min 81 W/m 16,1 km/h (3 Bft) 95,65 %
29.08.2021 12:02 15,0 C 14,4 C 13,9 C 96 % 1019,1 hPa 0,0 l/m 0 min 2 min 91 W/m 22,5 km/h (4 Bft) 97,87 %
29.08.2021 12:04 14,9 C 14,4 C 13,9 C 96 % 1019,0 hPa 0,0 l/m 0 min 2 min 98 W/m 25,7 km/h (4 Bft) 97,87 %
29.08.2021 12:07 14,9 C 14,4 C 13,9 C 96 % 1019,0 hPa 0,0 l/m 0 min 3 min 96 W/m 22,5 km/h (4 Bft) 98,68 %
29.08.2021 12:08 14,9 C 14,4 C 13,9 C 96 % 1019,0 hPa 0,0 l/m 0 min 1 min 109 W/m 12,9 km/h (3 Bft) 100,00 %
29.08.2021 12:10 14,9 C 14,4 C 13,9 C 96 % 1019,0 hPa 0,0 l/m 0 min 2 min 112 W/m 16,1 km/h (3 Bft) 100,00 %
29.08.2021 12:12 14,8 C 14,4 C 13,9 C 96 % 1018,9 hPa 0,0 l/m 0 min 0 min 106 W/m 22,5 km/h (4 Bft) 100,00 %
29.08.2021 12:14 14,8 C 14,4 C 13,9 C 96 % 1019,0 hPa 0,0 l/m 0 min 0 min 109 W/m 22,5 km/h (4 Bft) 97,83 %
29.08.2021 12:16 14,8 C 14,4 C 13,9 C 96 % 1019,0 hPa 0,0 l/m 0 min 0 min 112 W/m 25,7 km/h (4 Bft) 100,00 %
29.08.2021 12:18 14,8 C 14,4 C 13,9 C 96 % 1019,0 hPa 0,0 l/m 0 min 0 min 113 W/m 19,3 km/h (3 Bft) 96,23 %
29.08.2021 12:20 14,8 C 14,4 C 13,9 C 96 % 1018,9 hPa 0,0 l/m 0 min 2 min 121 W/m 22,5 km/h (4 Bft) 97,87 %
29.08.2021 12:22 14,8 C 13,9 C 13,9 C 96 % 1018,9 hPa 0,2 l/m 0 min 0 min 126 W/m 19,3 km/h (3 Bft) 95,74 %
29.08.2021 12:24 14,8 C 14,4 C 13,9 C 96 % 1018,9 hPa 0,0 l/m 0 min 0 min 111 W/m 9,7 km/h (2 Bft) 97,87 %
29.08.2021 12:26 14,8 C 13,9 C 13,9 C 96 % 1018,9 hPa 0,0 l/m 0 min 0 min 91 W/m 16,1 km/h (3 Bft) 97,83 %
29.08.2021 12:28 14,8 C 13,9 C 13,9 C 96 % 1018,9 hPa 0,0 l/m 0 min 0 min 84 W/m 19,3 km/h (3 Bft) 97,87 %
29.08.2021 12:30 14,8 C 13,9 C 13,9 C 96 % 1018,9 hPa 0,0 l/m 0 min 0 min 76 W/m 9,7 km/h (2 Bft) 97,87 %
29.08.2021 12:32 14,9 C 13,9 C 13,9 C 97 % 1018,8 hPa 0,0 l/m 0 min 0 min 79 W/m 12,9 km/h (3 Bft) 97,56 %
29.08.2021 12:34 14,9 C 13,9 C 13,9 C 97 % 1018,8 hPa 0,0 l/m 0 min 0 min 80 W/m 12,9 km/h (3 Bft) 96,23 %
29.08.2021 12:36 14,9 C 13,9 C 13,9 C 97 % 1018,9 hPa 0,0 l/m 0 min 0 min 84 W/m 9,7 km/h (2 Bft) 97,83 %
29.08.2021 12:38 14,9 C 14,4 C 13,9 C 97 % 1018,8 hPa 0,0 l/m 0 min 0 min 75 W/m 9,7 km/h (2 Bft) 97,87 %
29.08.2021 12:40 14,9 C 14,4 C 13,9 C 97 % 1018,9 hPa 0,0 l/m 0 min 0 min 65 W/m 16,1 km/h (3 Bft) 95,74 %
29.08.2021 12:42 14,9 C 13,9 C 13,9 C 97 % 1018,9 hPa 0,0 l/m 0 min 0 min 59 W/m 9,7 km/h (2 Bft) 97,87 %
29.08.2021 12:44 14,9 C 13,9 C 13,9 C 97 % 1018,8 hPa 0,0 l/m 0 min 0 min 61 W/m 12,9 km/h (3 Bft) 97,87 %
29.08.2021 12:46 14,9 C 13,9 C 13,9 C 97 % 1018,8 hPa 0,0 l/m 0 min 0 min 55 W/m 12,9 km/h (3 Bft) 97,56 %
29.08.2021 12:48 14,9 C 13,9 C 13,9 C 97 % 1018,8 hPa 0,0 l/m 0 min 0 min 56 W/m 16,1 km/h (3 Bft) 98,08 %
29.08.2021 12:50 14,8 C 13,9 C 13,9 C 97 % 1018,8 hPa 0,0 l/m 0 min 0 min 59 W/m 16,1 km/h (3 Bft) 97,87 %
29.08.2021 12:52 14,8 C 13,9 C 13,9 C 97 % 1018,7 hPa 0,0 l/m 0 min 0 min 59 W/m 25,7 km/h (4 Bft) 95,74 %
29.08.2021 12:54 14,8 C 13,9 C 13,9 C 97 % 1018,8 hPa 0,0 l/m 0 min 0 min 65 W/m 22,5 km/h (4 Bft) 97,87 %
29.08.2021 12:56 14,8 C 13,9 C 13,9 C 97 % 1018,8 hPa 0,0 l/m 0 min 0 min 89 W/m 16,1 km/h (3 Bft) 97,56 %
29.08.2021 12:58 14,7 C 13,9 C 13,9 C 97 % 1018,8 hPa 0,0 l/m 0 min 0 min 91 W/m 19,3 km/h (3 Bft) 100,00 %
29.08.2021 13:00 14,8 C 13,9 C 13,9 C 97 % 1018,8 hPa 0,0 l/m 0 min 0 min 77 W/m 22,5 km/h (4 Bft) 100,00 %
29.08.2021 13:02 14,8 C 13,9 C 13,9 C 97 % 1018,7 hPa 0,0 l/m 0 min 0 min 74 W/m 25,7 km/h (4 Bft) 100,00 %
29.08.2021 13:04 14,8 C 14,4 C 13,9 C 97 % 1018,7 hPa 0,0 l/m 0 min 0 min 69 W/m 22,5 km/h (4 Bft) 100,00 %
29.08.2021 13:06 14,8 C 13,9 C 13,9 C 97 % 1018,8 hPa 0,0 l/m 0 min 0 min 67 W/m 16,1 km/h (3 Bft) 97,87 %
29.08.2021 13:08 14,8 C 14,4 C 13,9 C 97 % 1018,7 hPa 0,0 l/m 0 min 0 min 73 W/m 19,3 km/h (3 Bft) 100,00 %
29.08.2021 13:10 14,8 C 14,4 C 14,5 C 97 % 1018,7 hPa 0,0 l/m 0 min 0 min 67 W/m 16,1 km/h (3 Bft) 100,00 %
29.08.2021 13:12 14,8 C 14,4 C 13,9 C 97 % 1018,7 hPa 0,0 l/m 0 min 0 min 67 W/m 16,1 km/h (3 Bft) 97,83 %
29.08.2021 13:14 14,9 C 14,4 C 14,5 C 97 % 1018,6 hPa 0,0 l/m 0 min 0 min 83 W/m 19,3 km/h (3 Bft) 100,00 %
29.08.2021 13:16 14,9 C 14,4 C 14,5 C 97 % 1018,6 hPa 0,0 l/m 0 min 0 min 101 W/m 22,5 km/h (4 Bft) 100,00 %
29.08.2021 13:18 14,9 C 14,4 C 14,5 C 97 % 1018,6 hPa 0,0 l/m 0 min 0 min 100 W/m 19,3 km/h (3 Bft) 100,00 %
29.08.2021 13:20 14,9 C 14,4 C 14,5 C 97 % 1018,7 hPa 0,0 l/m 0 min 0 min 92 W/m 12,9 km/h (3 Bft) 100,00 %
29.08.2021 13:22 14,9 C 14,4 C 14,5 C 97 % 1018,6 hPa 0,2 l/m 0 min 0 min 72 W/m 12,9 km/h (3 Bft) 100,00 %
29.08.2021 13:24 15,0 C 14,4 C 14,5 C 97 % 1018,6 hPa 0,0 l/m 0 min 0 min 78 W/m 12,9 km/h (3 Bft) 100,00 %
29.08.2021 13:26 15,0 C 14,4 C 14,5 C 97 % 1018,6 hPa 0,0 l/m 0 min 0 min 92 W/m 16,1 km/h (3 Bft) 100,00 %
29.08.2021 13:28 15,0 C 14,4 C 14,5 C 97 % 1018,6 hPa 0,0 l/m 0 min 0 min 85 W/m 12,9 km/h (3 Bft) 100,00 %
29.08.2021 13:30 15,0 C 14,4 C 14,5 C 97 % 1018,6 hPa 0,0 l/m 0 min 0 min 82 W/m 19,3 km/h (3 Bft) 100,00 %
29.08.2021 13:32 15,0 C 14,4 C 14,5 C 97 % 1018,6 hPa 0,0 l/m 0 min 0 min 111 W/m 22,5 km/h (4 Bft) 100,00 %
29.08.2021 13:34 15,0 C 14,4 C 14,5 C 97 % 1018,6 hPa 0,0 l/m 0 min 0 min 125 W/m 19,3 km/h (3 Bft) 100,00 %
29.08.2021 13:36 15,0 C 14,4 C 14,5 C 97 % 1018,6 hPa 0,0 l/m 0 min 0 min 134 W/m 16,1 km/h (3 Bft) 100,00 %
29.08.2021 13:38 15,0 C 14,4 C 14,5 C 97 % 1018,6 hPa 0,0 l/m 0 min 0 min 113 W/m 19,3 km/h (3 Bft) 100,00 %
29.08.2021 13:40 15,0 C 14,4 C 14,5 C 97 % 1018,6 hPa 0,0 l/m 0 min 0 min 87 W/m 19,3 km/h (3 Bft) 100,00 %
29.08.2021 13:42 15,1 C 14,4 C 14,5 C 97 % 1018,6 hPa 0,0 l/m 0 min 0 min 79 W/m 16,1 km/h (3 Bft) 100,00 %
29.08.2021 13:44 15,1 C 14,4 C 14,5 C 97 % 1018,6 hPa 0,0 l/m 0 min 2 min 77 W/m 12,9 km/h (3 Bft) 97,87 %
29.08.2021 13:46 15,1 C 14,4 C 14,5 C 97 % 1018,6 hPa 0,0 l/m 0 min 2 min 66 W/m 16,1 km/h (3 Bft) 100,00 %
29.08.2021 13:48 15,1 C 14,4 C 14,5 C 97 % 1018,6 hPa 0,2 l/m 0 min 0 min 62 W/m 12,9 km/h (3 Bft) 100,00 %
29.08.2021 13:50 15,1 C 14,4 C 14,5 C 98 % 1018,6 hPa 0,0 l/m 0 min 0 min 65 W/m 16,1 km/h (3 Bft) 95,74 %
29.08.2021 13:52 15,0 C 14,4 C 14,5 C 98 % 1018,5 hPa 0,0 l/m 0 min 0 min 62 W/m 22,5 km/h (4 Bft) 100,00 %
29.08.2021 13:54 15,1 C 14,4 C 14,5 C 98 % 1018,5 hPa 0,0 l/m 0 min 0 min 73 W/m 9,7 km/h (2 Bft) 100,00 %
29.08.2021 13:56 15,1 C 14,4 C 14,5 C 98 % 1018,5 hPa 0,0 l/m 0 min 0 min 78 W/m 22,5 km/h (4 Bft) 100,00 %
29.08.2021 13:58 15,1 C 14,4 C 14,5 C 98 % 1018,5 hPa 0,0 l/m 0 min 2 min 69 W/m 12,9 km/h (3 Bft) 100,00 %
29.08.2021 14:00 15,1 C 14,4 C 14,5 C 98 % 1018,5 hPa 0,0 l/m 0 min 0 min 69 W/m 16,1 km/h (3 Bft) 97,87 %
29.08.2021 14:02 15,1 C 14,4 C 14,5 C 98 % 1018,5 hPa 0,0 l/m 0 min 0 min 65 W/m 12,9 km/h (3 Bft) 100,00 %
29.08.2021 14:04 15,1 C 14,4 C 14,5 C 98 % 1018,5 hPa 0,0 l/m 0 min 0 min 58 W/m 12,9 km/h (3 Bft) 100,00 %
29.08.2021 14:06 15,1 C 14,4 C 14,5 C 98 % 1018,5 hPa 0,0 l/m 0 min 0 min 57 W/m 12,9 km/h (3 Bft) 91,49 %
29.08.2021 14:08 15,1 C 14,4 C 14,5 C 98 % 1018,5 hPa 0,0 l/m 0 min 0 min 63 W/m 12,9 km/h (3 Bft) 95,74 %
29.08.2021 14:10 15,1 C 14,4 C 14,5 C 98 % 1018,5 hPa 0,0 l/m 0 min 0 min 65 W/m 12,9 km/h (3 Bft) 93,48 %
29.08.2021 14:12 15,1 C 14,4 C 14,5 C 98 % 1018,5 hPa 0,0 l/m 0 min 0 min 60 W/m 12,9 km/h (3 Bft) 95,74 %
29.08.2021 14:14 15,1 C 14,4 C 14,5 C 98 % 1018,5 hPa 0,0 l/m 0 min 0 min 54 W/m 6,4 km/h (2 Bft) 95,74 %
29.08.2021 14:16 15,2 C 14,4 C 15,0 C 98 % 1018,5 hPa 0,0 l/m 0 min 0 min 53 W/m 16,1 km/h (3 Bft) 91,49 %
29.08.2021 14:18 15,2 C 14,4 C 14,5 C 98 % 1018,5 hPa 0,0 l/m 0 min 0 min 48 W/m 16,1 km/h (3 Bft) 97,87 %
29.08.2021 14:20 15,2 C 14,4 C 15,0 C 98 % 1018,5 hPa 0,0 l/m 0 min 0 min 60 W/m 16,1 km/h (3 Bft) 93,62 %
29.08.2021 14:22 15,2 C 14,4 C 15,0 C 98 % 1018,5 hPa 0,0 l/m 0 min 0 min 67 W/m 16,1 km/h (3 Bft) 86,96 %
29.08.2021 14:24 15,2 C 14,4 C 15,0 C 98 % 1018,5 hPa 0,0 l/m 0 min 0 min 77 W/m 16,1 km/h (3 Bft) 93,62 %
29.08.2021 14:26 15,3 C 14,4 C 15,0 C 98 % 1018,5 hPa 0,0 l/m 0 min 2 min 74 W/m 9,7 km/h (2 Bft) 93,62 %
29.08.2021 14:28 15,3 C 14,4 C 15,0 C 98 % 1018,5 hPa 0,0 l/m 0 min 2 min 83 W/m 12,9 km/h (3 Bft) 95,74 %
29.08.2021 14:30 15,3 C 14,4 C 15,0 C 98 % 1018,5 hPa 0,2 l/m 0 min 2 min 82 W/m 16,1 km/h (3 Bft) 91,49 %
29.08.2021 14:32 15,3 C 14,4 C 15,0 C 98 % 1018,5 hPa 0,2 l/m 0 min 2 min 80 W/m 16,1 km/h (3 Bft) 91,30 %
29.08.2021 14:34 15,3 C 14,4 C 15,0 C 98 % 1018,5 hPa 0,0 l/m 0 min 2 min 95 W/m 16,1 km/h (3 Bft) 91,49 %
29.08.2021 14:36 15,3 C 14,4 C 15,0 C 98 % 1018,5 hPa 0,0 l/m 0 min 2 min 96 W/m 12,9 km/h (3 Bft) 91,49 %
29.08.2021 14:38 15,3 C 14,4 C 15,0 C 98 % 1018,4 hPa 0,0 l/m 0 min 0 min 96 W/m 9,7 km/h (2 Bft) 93,62 %
29.08.2021 14:40 15,4 C 14,4 C 15,0 C 98 % 1018,5 hPa 0,2 l/m 0 min 2 min 98 W/m 12,9 km/h (3 Bft) 93,62 %
29.08.2021 14:42 15,4 C 14,4 C 15,0 C 98 % 1018,5 hPa 0,2 l/m 0 min 2 min 103 W/m 9,7 km/h (2 Bft) 93,62 %
29.08.2021 14:44 15,4 C 15,0 C 15,0 C 98 % 1018,4 hPa 0,0 l/m 0 min 2 min 121 W/m 6,4 km/h (2 Bft) 93,48 %
29.08.2021 14:46 15,4 C 15,0 C 15,0 C 98 % 1018,4 hPa 0,2 l/m 0 min 2 min 109 W/m 9,7 km/h (2 Bft) 91,49 %
29.08.2021 14:48 15,4 C 14,4 C 15,0 C 98 % 1018,4 hPa 0,2 l/m 0 min 2 min 97 W/m 16,1 km/h (3 Bft) 93,62 %
29.08.2021 14:50 15,5 C 15,0 C 15,0 C 98 % 1018,4 hPa 0,2 l/m 0 min 2 min 93 W/m 12,9 km/h (3 Bft) 95,74 %
29.08.2021 14:52 15,5 C 15,0 C 15,0 C 98 % 1018,4 hPa 0,0 l/m 0 min 2 min 94 W/m 9,7 km/h (2 Bft) 95,74 %
29.08.2021 14:54 15,5 C 15,0 C 15,0 C 98 % 1018,4 hPa 0,0 l/m 0 min 2 min 99 W/m 12,9 km/h (3 Bft) 97,87 %
29.08.2021 14:56 15,5 C 15,0 C 15,0 C 98 % 1018,4 hPa 0,2 l/m 0 min 2 min 111 W/m 12,9 km/h (3 Bft) 100,00 %
29.08.2021 14:58 15,5 C 15,0 C 15,0 C 98 % 1018,3 hPa 0,0 l/m 0 min 2 min 111 W/m 12,9 km/h (3 Bft) 100,00 %
29.08.2021 15:00 15,5 C 15,0 C 15,0 C 98 % 1018,3 hPa 0,0 l/m 0 min 2 min 109 W/m 12,9 km/h (3 Bft) 100,00 %
29.08.2021 15:02 15,5 C 15,0 C 15,0 C 98 % 1018,3 hPa 0,0 l/m 0 min 0 min 107 W/m 9,7 km/h (2 Bft) 100,00 %
29.08.2021 15:04 15,6 C 15,0 C 15,6 C 98 % 1018,3 hPa 0,2 l/m 0 min 0 min 106 W/m 6,4 km/h (2 Bft) 97,87 %
29.08.2021 15:06 15,5 C 15,0 C 15,0 C 98 % 1018,3 hPa 0,0 l/m 0 min 2 min 105 W/m 3,2 km/h (1 Bft) 97,83 %
29.08.2021 15:08 15,6 C 15,0 C 15,6 C 98 % 1018,3 hPa 0,0 l/m 0 min 2 min 106 W/m 9,7 km/h (2 Bft) 100,00 %
29.08.2021 15:10 15,6 C 15,0 C 15,6 C 98 % 1018,3 hPa 0,0 l/m 0 min 2 min 111 W/m 6,4 km/h (2 Bft) 100,00 %
29.08.2021 15:12 15,7 C 15,0 C 15,6 C 98 % 1018,3 hPa 0,0 l/m 0 min 2 min 117 W/m 6,4 km/h (2 Bft) 100,00 %
29.08.2021 15:14 15,7 C 15,0 C 15,6 C 98 % 1018,3 hPa 0,0 l/m 0 min 2 min 124 W/m 6,4 km/h (2 Bft) 100,00 %
29.08.2021 15:16 15,8 C 15,6 C 15,6 C 98 % 1018,3 hPa 0,0 l/m 0 min 2 min 141 W/m 12,9 km/h (3 Bft) 100,00 %
29.08.2021 15:18 15,8 C 15,0 C 15,6 C 98 % 1018,3 hPa 0,0 l/m 0 min 2 min 167 W/m 12,9 km/h (3 Bft) 100,00 %
29.08.2021 15:20 15,8 C 15,6 C 15,6 C 98 % 1018,3 hPa 0,0 l/m 0 min 0 min 169 W/m 9,7 km/h (2 Bft) 100,00 %
29.08.2021 15:22 15,8 C 15,6 C 15,6 C 98 % 1018,3 hPa 0,0 l/m 0 min 0 min 149 W/m 9,7 km/h (2 Bft) 100,00 %
29.08.2021 15:24 15,9 C 15,6 C 15,6 C 98 % 1018,3 hPa 0,0 l/m 0 min 0 min 138 W/m 9,7 km/h (2 Bft) 100,00 %
29.08.2021 15:26 15,8 C 15,6 C 15,6 C 98 % 1018,3 hPa 0,0 l/m 0 min 0 min 129 W/m 16,1 km/h (3 Bft) 100,00 %
29.08.2021 15:28 15,8 C 15,6 C 15,6 C 98 % 1018,3 hPa 0,0 l/m 0 min 0 min 115 W/m 6,4 km/h (2 Bft) 100,00 %
29.08.2021 15:30 15,8 C 15,6 C 15,6 C 98 % 1018,2 hPa 0,0 l/m 0 min 0 min 110 W/m 6,4 km/h (2 Bft) 100,00 %
29.08.2021 15:32 15,8 C 15,6 C 15,6 C 98 % 1018,3 hPa 0,0 l/m 0 min 0 min 107 W/m 6,4 km/h (2 Bft) 100,00 %
29.08.2021 15:34 15,8 C 15,6 C 15,6 C 98 % 1018,2 hPa 0,0 l/m 0 min 0 min 123 W/m 9,7 km/h (2 Bft) 100,00 %
29.08.2021 15:36 15,8 C 15,6 C 15,6 C 98 % 1018,2 hPa 0,0 l/m 0 min 0 min 130 W/m 12,9 km/h (3 Bft) 100,00 %
29.08.2021 15:38 15,8 C 15,6 C 15,6 C 98 % 1018,2 hPa 0,0 l/m 0 min 0 min 136 W/m 19,3 km/h (3 Bft) 100,00 %
29.08.2021 15:40 15,8 C 15,6 C 15,6 C 98 % 1018,2 hPa 0,0 l/m 0 min 0 min 123 W/m 12,9 km/h (3 Bft) 100,00 %
29.08.2021 15:42 15,8 C 15,6 C 15,6 C 98 % 1018,2 hPa 0,0 l/m 0 min 0 min 118 W/m 12,9 km/h (3 Bft) 97,83 %
29.08.2021 15:44 15,9 C 15,6 C 15,6 C 98 % 1018,2 hPa 0,0 l/m 0 min 0 min 113 W/m 9,7 km/h (2 Bft) 100,00 %
29.08.2021 15:46 15,9 C 15,6 C 15,6 C 98 % 1018,2 hPa 0,0 l/m 0 min 0 min 102 W/m 6,4 km/h (2 Bft) 100,00 %
29.08.2021 15:48 15,9 C 15,6 C 15,6 C 98 % 1018,2 hPa 0,0 l/m 0 min 2 min 98 W/m 16,1 km/h (3 Bft) 100,00 %
29.08.2021 15:50 15,9 C 15,6 C 15,6 C 98 % 1018,1 hPa 0,0 l/m 0 min 2 min 118 W/m 12,9 km/h (3 Bft) 97,87 %
29.08.2021 15:52 15,9 C 15,6 C 15,6 C 98 % 1018,1 hPa 0,0 l/m 0 min 2 min 120 W/m 6,4 km/h (2 Bft) 97,83 %
29.08.2021 15:54 15,9 C 15,6 C 15,6 C 98 % 1018,1 hPa 0,0 l/m 0 min 0 min 103 W/m 6,4 km/h (2 Bft) 100,00 %
29.08.2021 15:56 15,9 C 15,6 C 15,6 C 98 % 1018,1 hPa 0,0 l/m 0 min 2 min 75 W/m 12,9 km/h (3 Bft) 97,87 %
29.08.2021 15:58 15,9 C 15,6 C 15,6 C 98 % 1018,1 hPa 0,0 l/m 0 min 2 min 66 W/m 3,2 km/h (1 Bft) 100,00 %
29.08.2021 16:00 15,9 C 15,6 C 15,6 C 98 % 1018,1 hPa 0,0 l/m 0 min 2 min 65 W/m 12,9 km/h (3 Bft) 97,87 %
29.08.2021 16:02 15,9 C 15,0 C 15,6 C 98 % 1018,2 hPa 0,2 l/m 0 min 2 min 73 W/m 12,9 km/h (3 Bft) 100,00 %
29.08.2021 16:04 15,9 C 15,6 C 15,6 C 98 % 1018,2 hPa 0,0 l/m 0 min 2 min 116 W/m 12,9 km/h (3 Bft) 100,00 %
29.08.2021 16:06 15,9 C 15,6 C 15,6 C 98 % 1018,1 hPa 0,0 l/m 0 min 0 min 147 W/m 3,2 km/h (1 Bft) 100,00 %
29.08.2021 16:08 15,9 C 15,6 C 15,6 C 98 % 1018,1 hPa 0,0 l/m 0 min 0 min 156 W/m 3,2 km/h (1 Bft) 100,00 %
29.08.2021 16:10 16,0 C 15,6 C 15,6 C 98 % 1018,1 hPa 0,0 l/m 0 min 0 min 159 W/m 3,2 km/h (1 Bft) 100,00 %
29.08.2021 16:12 16,0 C 16,1 C 16,1 C 98 % 1018,1 hPa 0,0 l/m 0 min 0 min 170 W/m 6,4 km/h (2 Bft) 97,87 %
29.08.2021 16:14 16,1 C 16,1 C 16,1 C 98 % 1018,1 hPa 0,0 l/m 0 min 0 min 172 W/m 6,4 km/h (2 Bft) 100,00 %
29.08.2021 16:16 16,1 C 16,1 C 15,6 C 98 % 1018,1 hPa 0,0 l/m 0 min 0 min 169 W/m 12,9 km/h (3 Bft) 100,00 %
29.08.2021 16:18 16,1 C 16,1 C 16,1 C 98 % 1018,0 hPa 0,0 l/m 0 min 0 min 164 W/m 3,2 km/h (1 Bft) 97,87 %
29.08.2021 16:20 16,1 C 16,1 C 16,1 C 98 % 1018,1 hPa 0,0 l/m 0 min 0 min 156 W/m 6,4 km/h (2 Bft) 97,87 %
29.08.2021 16:22 16,2 C 16,1 C 16,1 C 98 % 1018,1 hPa 0,0 l/m 0 min 0 min 164 W/m 6,4 km/h (2 Bft) 95,74 %
29.08.2021 16:24 16,2 C 16,1 C 16,1 C 98 % 1018,1 hPa 0,0 l/m 0 min 0 min 143 W/m 6,4 km/h (2 Bft) 97,87 %
29.08.2021 16:26 16,1 C 16,1 C 16,1 C 98 % 1018,1 hPa 0,0 l/m 0 min 0 min 112 W/m 9,7 km/h (2 Bft) 97,87 %
29.08.2021 16:28 16,1 C 16,1 C 15,6 C 98 % 1018,1 hPa 0,0 l/m 0 min 0 min 95 W/m 9,7 km/h (2 Bft) 97,83 %
29.08.2021 16:30 16,1 C 16,1 C 15,6 C 98 % 1018,1 hPa 0,0 l/m 0 min 0 min 58 W/m 9,7 km/h (2 Bft) 97,87 %
29.08.2021 16:32 16,1 C 15,6 C 15,6 C 98 % 1018,2 hPa 0,0 l/m 0 min 0 min 37 W/m 6,4 km/h (2 Bft) 97,87 %
29.08.2021 16:34 16,1 C 15,6 C 15,6 C 98 % 1018,1 hPa 0,0 l/m 0 min 0 min 30 W/m 3,2 km/h (1 Bft) 95,74 %
29.08.2021 16:36 16,1 C 15,6 C 15,6 C 98 % 1018,1 hPa 0,0 l/m 0 min 0 min 28 W/m 6,4 km/h (2 Bft) 97,87 %
29.08.2021 16:38 16,0 C 15,6 C 15,6 C 98 % 1018,1 hPa 0,0 l/m 0 min 2 min 27 W/m 6,4 km/h (2 Bft) 97,87 %
29.08.2021 16:40 16,0 C 15,6 C 15,6 C 98 % 1018,1 hPa 0,0 l/m 0 min 0 min 34 W/m 9,7 km/h (2 Bft) 97,83 %
29.08.2021 16:42 16,0 C 15,6 C 15,6 C 98 % 1018,1 hPa 0,0 l/m 0 min 0 min 54 W/m 6,4 km/h (2 Bft) 95,74 %
29.08.2021 16:44 16,0 C 15,6 C 15,6 C 98 % 1018,1 hPa 0,0 l/m 0 min 2 min 80 W/m 9,7 km/h (2 Bft) 97,87 %
29.08.2021 16:46 16,0 C 15,6 C 15,6 C 98 % 1018,0 hPa 0,0 l/m 0 min 0 min 104 W/m 3,2 km/h (1 Bft) 95,74 %
29.08.2021 16:48 16,0 C 15,6 C 15,6 C 98 % 1018,1 hPa 0,0 l/m 0 min 0 min 124 W/m 9,7 km/h (2 Bft) 97,87 %
29.08.2021 16:50 16,0 C 15,6 C 15,6 C 98 % 1018,1 hPa 0,0 l/m 0 min 0 min 125 W/m 6,4 km/h (2 Bft) 95,74 %
29.08.2021 16:52 16,0 C 15,6 C 15,6 C 98 % 1018,0 hPa 0,0 l/m 0 min 0 min 130 W/m 6,4 km/h (2 Bft) 95,65 %
29.08.2021 16:54 16,0 C 15,6 C 15,6 C 98 % 1018,1 hPa 0,0 l/m 0 min 0 min 122 W/m 6,4 km/h (2 Bft) 93,62 %
29.08.2021 16:56 16,1 C 16,1 C 16,1 C 98 % 1018,0 hPa 0,0 l/m 0 min 0 min 110 W/m 6,4 km/h (2 Bft) 95,74 %
29.08.2021 16:58 16,1 C 16,1 C 15,6 C 98 % 1018,1 hPa 0,0 l/m 0 min 0 min 112 W/m 3,2 km/h (1 Bft) 97,87 %
29.08.2021 17:00 16,1 C 16,1 C 15,6 C 98 % 1018,0 hPa 0,0 l/m 0 min 0 min 141 W/m 6,4 km/h (2 Bft) 97,87 %
29.08.2021 17:02 16,1 C 16,1 C 16,1 C 98 % 1018,0 hPa 0,0 l/m 0 min 0 min 181 W/m 3,2 km/h (1 Bft) 95,65 %
29.08.2021 17:04 16,2 C 16,1 C 15,6 C 98 % 1018,0 hPa 0,0 l/m 0 min 0 min 195 W/m 19,3 km/h (3 Bft) 95,74 %
29.08.2021 17:06 16,2 C 16,7 C 16,1 C 98 % 1018,0 hPa 0,0 l/m 0 min 0 min 182 W/m 3,2 km/h (1 Bft) 95,74 %
29.08.2021 17:08 16,2 C 16,7 C 16,1 C 98 % 1018,0 hPa 0,0 l/m 0 min 0 min 180 W/m 9,7 km/h (2 Bft) 93,62 %
29.08.2021 17:10 16,3 C 16,7 C 16,1 C 98 % 1018,0 hPa 0,0 l/m 0 min 0 min 186 W/m 6,4 km/h (2 Bft) 91,49 %
29.08.2021 17:12 16,4 C 16,7 C 16,1 C 98 % 1018,0 hPa 0,0 l/m 0 min 0 min 203 W/m 9,7 km/h (2 Bft) 95,74 %
29.08.2021 17:14 16,4 C 17,2 C 16,1 C 98 % 1018,0 hPa 0,0 l/m 0 min 0 min 232 W/m 9,7 km/h (2 Bft) 95,65 %
29.08.2021 17:16 16,4 C 17,2 C 16,1 C 98 % 1018,0 hPa 0,0 l/m 0 min 0 min 218 W/m 12,9 km/h (3 Bft) 95,74 %
29.08.2021 17:18 16,4 C 17,8 C 16,1 C 98 % 1018,0 hPa 0,0 l/m 2 min 0 min 263 W/m 9,7 km/h (2 Bft) 95,74 %
29.08.2021 17:20 16,5 C 19,4 C 16,1 C 98 % 1018,0 hPa 0,0 l/m 2 min 0 min 288 W/m 3,2 km/h (1 Bft) 95,74 %
29.08.2021 17:22 16,6 C 20,6 C 16,7 C 98 % 1018,0 hPa 0,0 l/m 2 min 0 min 310 W/m 3,2 km/h (1 Bft) 95,74 %
29.08.2021 17:24 16,8 C 22,2 C 16,7 C 98 % 1018,0 hPa 0,0 l/m 2 min 0 min 449 W/m 6,4 km/h (2 Bft) 95,74 %
29.08.2021 17:26 17,0 C 22,8 C 17,3 C 98 % 1018,0 hPa 0,0 l/m 2 min 0 min 617 W/m 9,7 km/h (2 Bft) 93,48 %
29.08.2021 17:28 17,1 C 22,2 C 17,3 C 98 % 1017,9 hPa 0,0 l/m 2 min 0 min 464 W/m 9,7 km/h (2 Bft) 95,74 %
29.08.2021 17:30 17,1 C 21,7 C 16,7 C 98 % 1018,0 hPa 0,0 l/m 2 min 0 min 267 W/m 12,9 km/h (3 Bft) 91,49 %
29.08.2021 17:32 17,1 C 20,0 C 16,7 C 98 % 1018,0 hPa 0,0 l/m 0 min 0 min 213 W/m 9,7 km/h (2 Bft) 97,14 %
29.08.2021 17:34 17,0 C 20,0 C 16,7 C 98 % 1017,9 hPa 0,0 l/m 0 min 0 min 201 W/m 12,9 km/h (3 Bft) 95,74 %
29.08.2021 17:36 17,1 C 20,0 C 16,7 C 98 % 1018,0 hPa 0,0 l/m 0 min 0 min 202 W/m 9,7 km/h (2 Bft) 94,92 %
29.08.2021 17:38 17,1 C 21,1 C 16,7 C 98 % 1018,0 hPa 0,0 l/m 2 min 0 min 321 W/m 6,4 km/h (2 Bft) 95,65 %
29.08.2021 17:40 17,3 C 22,2 C 17,3 C 98 % 1018,0 hPa 0,0 l/m 2 min 0 min 423 W/m 12,9 km/h (3 Bft) 97,67 %
29.08.2021 17:42 17,4 C 22,8 C 17,3 C 98 % 1018,0 hPa 0,0 l/m 2 min 0 min 419 W/m 12,9 km/h (3 Bft) 97,87 %
29.08.2021 17:44 17,4 C 21,1 C 17,3 C 98 % 1018,0 hPa 0,0 l/m 2 min 0 min 399 W/m 12,9 km/h (3 Bft) 95,74 %
29.08.2021 17:46 17,5 C 20,0 C 16,7 C 98 % 1018,0 hPa 0,0 l/m 2 min 0 min 252 W/m 9,7 km/h (2 Bft) 95,74 %
29.08.2021 17:48 17,5 C 19,4 C 16,7 C 98 % 1018,0 hPa 0,0 l/m 2 min 0 min 225 W/m 16,1 km/h (3 Bft) 97,87 %
29.08.2021 17:50 17,4 C 18,9 C 16,7 C 97 % 1017,9 hPa 0,0 l/m 2 min 0 min 217 W/m 12,9 km/h (3 Bft) 97,83 %
29.08.2021 17:52 17,4 C 18,3 C 16,7 C 97 % 1018,0 hPa 0,0 l/m 0 min 0 min 183 W/m 6,4 km/h (2 Bft) 97,87 %
29.08.2021 17:54 17,4 C 18,3 C 16,7 C 97 % 1017,9 hPa 0,0 l/m 0 min 0 min 178 W/m 12,9 km/h (3 Bft) 95,74 %
29.08.2021 17:56 17,4 C 17,8 C 16,7 C 97 % 1018,0 hPa 0,0 l/m 0 min 0 min 162 W/m 19,3 km/h (3 Bft) 100,00 %
29.08.2021 17:58 17,4 C 17,8 C 16,7 C 97 % 1018,0 hPa 0,0 l/m 0 min 0 min 117 W/m 6,4 km/h (2 Bft) 100,00 %
29.08.2021 18:00 17,4 C 17,2 C 16,7 C 97 % 1018,0 hPa 0,0 l/m 0 min 0 min 98 W/m 6,4 km/h (2 Bft) 97,87 %
29.08.2021 18:02 17,4 C 17,2 C 16,7 C 96 % 1018,0 hPa 0,0 l/m 0 min 0 min 94 W/m 9,7 km/h (2 Bft) 97,83 %
29.08.2021 18:04 17,4 C 17,2 C 16,7 C 96 % 1017,9 hPa 0,0 l/m 0 min 0 min 85 W/m 12,9 km/h (3 Bft) 100,00 %
29.08.2021 18:07 17,3 C 17,2 C 16,1 C 96 % 1017,9 hPa 0,0 l/m 0 min 0 min 87 W/m 9,7 km/h (2 Bft) 100,00 %
29.08.2021 18:08 17,3 C 17,2 C 16,1 C 96 % 1017,9 hPa 0,0 l/m 0 min 0 min 86 W/m 6,4 km/h (2 Bft) 100,00 %
29.08.2021 18:10 17,3 C 17,2 C 16,7 C 96 % 1017,9 hPa 0,0 l/m 0 min 0 min 91 W/m 9,7 km/h (2 Bft) 100,00 %
29.08.2021 18:12 17,3 C 17,2 C 16,7 C 96 % 1018,0 hPa 0,0 l/m 0 min 0 min 97 W/m 12,9 km/h (3 Bft) 100,00 %
29.08.2021 18:14 17,3 C 16,7 C 16,1 C 96 % 1018,0 hPa 0,0 l/m 0 min 0 min 107 W/m 16,1 km/h (3 Bft) 100,00 %
29.08.2021 18:16 17,3 C 17,2 C 16,1 C 96 % 1018,0 hPa 0,0 l/m 0 min 0 min 112 W/m 12,9 km/h (3 Bft) 97,87 %
29.08.2021 18:18 17,3 C 17,2 C 16,1 C 96 % 1017,9 hPa 0,0 l/m 0 min 0 min 103 W/m 12,9 km/h (3 Bft) 100,00 %
29.08.2021 18:20 17,3 C 16,7 C 16,1 C 96 % 1017,9 hPa 0,0 l/m 0 min 0 min 92 W/m 12,9 km/h (3 Bft) 100,00 %
29.08.2021 18:22 17,3 C 17,2 C 16,1 C 96 % 1017,9 hPa 0,0 l/m 0 min 0 min 110 W/m 9,7 km/h (2 Bft) 100,00 %
29.08.2021 18:24 17,3 C 17,2 C 16,7 C 96 % 1017,9 hPa 0,0 l/m 2 min 0 min 153 W/m 9,7 km/h (2 Bft) 97,83 %
29.08.2021 18:26 17,3 C 17,2 C 16,7 C 96 % 1017,9 hPa 0,0 l/m 2 min 0 min 189 W/m 9,7 km/h (2 Bft) 97,87 %
29.08.2021 18:28 17,3 C 17,8 C 16,7 C 96 % 1017,9 hPa 0,0 l/m 2 min 0 min 169 W/m 6,4 km/h (2 Bft) 95,74 %
29.08.2021 18:30 17,4 C 17,8 C 16,7 C 96 % 1017,8 hPa 0,0 l/m 2 min 0 min 170 W/m 3,2 km/h (1 Bft) 97,87 %
29.08.2021 18:32 17,4 C 17,8 C 16,7 C 96 % 1017,8 hPa 0,0 l/m 2 min 0 min 159 W/m 12,9 km/h (3 Bft) 97,87 %
29.08.2021 18:34 17,4 C 17,8 C 16,7 C 96 % 1017,9 hPa 0,0 l/m 0 min 0 min 130 W/m 6,4 km/h (2 Bft) 95,74 %
29.08.2021 18:36 17,4 C 17,8 C 16,7 C 96 % 1017,9 hPa 0,0 l/m 0 min 0 min 115 W/m 9,7 km/h (2 Bft) 97,83 %
29.08.2021 18:38 17,4 C 17,2 C 16,7 C 96 % 1017,9 hPa 0,0 l/m 0 min 0 min 100 W/m 9,7 km/h (2 Bft) 97,87 %
29.08.2021 18:40 17,4 C 17,2 C 16,7 C 96 % 1017,9 hPa 0,0 l/m 0 min 0 min 83 W/m 6,4 km/h (2 Bft) 97,87 %
29.08.2021 18:42 17,4 C 17,2 C 16,7 C 96 % 1017,9 hPa 0,0 l/m 0 min 0 min 68 W/m 9,7 km/h (2 Bft) 97,87 %
29.08.2021 18:44 17,4 C 16,7 C 16,1 C 96 % 1017,9 hPa 0,0 l/m 0 min 0 min 34 W/m 12,9 km/h (3 Bft) 95,74 %
29.08.2021 18:46 17,3 C 16,7 C 16,1 C 95 % 1017,9 hPa 0,0 l/m 0 min 0 min 20 W/m 9,7 km/h (2 Bft) 97,87 %
29.08.2021 18:48 17,3 C 16,7 C 16,1 C 95 % 1018,0 hPa 0,0 l/m 0 min 0 min 23 W/m 12,9 km/h (3 Bft) 97,83 %
29.08.2021 18:50 17,3 C 16,7 C 16,1 C 95 % 1017,9 hPa 0,2 l/m 0 min 2 min 24 W/m 16,1 km/h (3 Bft) 95,74 %
29.08.2021 18:52 17,3 C 16,1 C 16,1 C 95 % 1017,9 hPa 0,0 l/m 0 min 2 min 22 W/m 9,7 km/h (2 Bft) 93,62 %
29.08.2021 18:54 17,2 C 16,1 C 16,1 C 95 % 1017,9 hPa 0,0 l/m 0 min 2 min 23 W/m 6,4 km/h (2 Bft) 97,87 %
29.08.2021 18:56 17,1 C 16,1 C 16,1 C 95 % 1017,9 hPa 0,0 l/m 0 min 0 min 27 W/m 16,1 km/h (3 Bft) 97,87 %
29.08.2021 18:58 17,1 C 16,1 C 16,1 C 95 % 1018,0 hPa 0,0 l/m 0 min 0 min 37 W/m 16,1 km/h (3 Bft) 100,00 %
29.08.2021 19:00 17,1 C 16,1 C 16,1 C 95 % 1018,0 hPa 0,0 l/m 0 min 0 min 46 W/m 3,2 km/h (1 Bft) 97,83 %
29.08.2021 19:02 17,0 C 16,1 C 16,1 C 95 % 1018,0 hPa 0,0 l/m 0 min 0 min 57 W/m 6,4 km/h (2 Bft) 100,00 %
29.08.2021 19:04 17,0 C 16,1 C 16,1 C 95 % 1018,0 hPa 0,0 l/m 0 min 0 min 66 W/m 9,7 km/h (2 Bft) 100,00 %
29.08.2021 19:06 17,0 C 16,1 C 16,1 C 95 % 1017,9 hPa 0,0 l/m 0 min 0 min 68 W/m 16,1 km/h (3 Bft) 100,00 %
29.08.2021 19:08 17,0 C 16,1 C 16,1 C 95 % 1018,0 hPa 0,0 l/m 0 min 0 min 58 W/m 6,4 km/h (2 Bft) 100,00 %
29.08.2021 19:10 17,0 C 16,1 C 16,1 C 95 % 1018,0 hPa 0,0 l/m 0 min 0 min 48 W/m 9,7 km/h (2 Bft) 100,00 %
29.08.2021 19:12 17,0 C 16,1 C 16,1 C 96 % 1018,0 hPa 0,0 l/m 0 min 0 min 39 W/m 12,9 km/h (3 Bft) 100,00 %
29.08.2021 19:14 16,9 C 16,1 C 16,1 C 96 % 1018,0 hPa 0,0 l/m 0 min 0 min 35 W/m 6,4 km/h (2 Bft) 100,00 %
29.08.2021 19:16 16,9 C 16,1 C 16,1 C 95 % 1018,0 hPa 0,0 l/m 0 min 0 min 35 W/m 9,7 km/h (2 Bft) 97,87 %
29.08.2021 19:18 16,9 C 16,1 C 16,1 C 96 % 1018,0 hPa 0,0 l/m 0 min 0 min 37 W/m 9,7 km/h (2 Bft) 100,00 %
29.08.2021 19:20 16,9 C 16,1 C 16,1 C 96 % 1017,9 hPa 0,0 l/m 0 min 0 min 35 W/m 6,4 km/h (2 Bft) 100,00 %
29.08.2021 19:22 16,9 C 16,1 C 16,1 C 96 % 1017,9 hPa 0,0 l/m 0 min 0 min 35 W/m 3,2 km/h (1 Bft) 100,00 %
29.08.2021 19:24 16,9 C 16,1 C 16,1 C 96 % 1017,9 hPa 0,0 l/m 0 min 0 min 44 W/m 3,2 km/h (1 Bft) 100,00 %
29.08.2021 19:26 16,9 C 16,1 C 16,1 C 96 % 1017,9 hPa 0,0 l/m 0 min 0 min 42 W/m 3,2 km/h (1 Bft) 100,00 %
29.08.2021 19:28 16,8 C 16,1 C 16,1 C 96 % 1017,9 hPa 0,0 l/m 0 min 0 min 33 W/m 6,4 km/h (2 Bft) 100,00 %
29.08.2021 19:30 16,8 C 16,1 C 16,1 C 96 % 1017,9 hPa 0,0 l/m 0 min 0 min 26 W/m 6,4 km/h (2 Bft) 100,00 %
29.08.2021 19:32 16,8 C 16,1 C 16,1 C 96 % 1017,9 hPa 0,0 l/m 0 min 0 min 26 W/m 6,4 km/h (2 Bft) 100,00 %
29.08.2021 19:34 16,8 C 16,1 C 16,1 C 96 % 1017,9 hPa 0,0 l/m 0 min 0 min 33 W/m 9,7 km/h (2 Bft) 97,83 %
29.08.2021 19:36 16,8 C 16,1 C 15,6 C 96 % 1017,9 hPa 0,0 l/m 0 min 0 min 39 W/m 9,7 km/h (2 Bft) 100,00 %
29.08.2021 19:38 16,8 C 16,1 C 15,6 C 96 % 1018,0 hPa 0,0 l/m 0 min 0 min 37 W/m 6,4 km/h (2 Bft) 97,87 %
29.08.2021 19:40 16,8 C 16,1 C 15,6 C 96 % 1017,9 hPa 0,0 l/m 0 min 0 min 32 W/m 9,7 km/h (2 Bft) 97,87 %
29.08.2021 19:42 16,8 C 16,1 C 16,1 C 96 % 1017,9 hPa 0,0 l/m 0 min 0 min 32 W/m 12,9 km/h (3 Bft) 95,74 %
29.08.2021 19:44 16,8 C 16,1 C 15,6 C 96 % 1018,0 hPa 0,0 l/m 0 min 0 min 33 W/m 12,9 km/h (3 Bft) 91,49 %
29.08.2021 19:46 16,7 C 16,1 C 15,6 C 96 % 1018,0 hPa 0,0 l/m 0 min 0 min 30 W/m 9,7 km/h (2 Bft) 97,83 %
29.08.2021 19:48 16,7 C 16,1 C 15,6 C 96 % 1018,0 hPa 0,0 l/m 0 min 0 min 26 W/m 6,4 km/h (2 Bft) 97,87 %
29.08.2021 19:50 16,7 C 16,1 C 15,6 C 96 % 1018,0 hPa 0,0 l/m 0 min 0 min 24 W/m 9,7 km/h (2 Bft) 95,74 %
29.08.2021 19:52 16,7 C 16,1 C 15,6 C 96 % 1018,0 hPa 0,0 l/m 0 min 0 min 19 W/m 12,9 km/h (3 Bft) 97,87 %
29.08.2021 19:54 16,7 C 16,1 C 15,6 C 96 % 1017,9 hPa 0,0 l/m 0 min 0 min 17 W/m 12,9 km/h (3 Bft) 97,87 %
29.08.2021 19:56 16,7 C 16,1 C 16,1 C 96 % 1018,0 hPa 0,0 l/m 0 min 0 min 16 W/m 9,7 km/h (2 Bft) 97,83 %
29.08.2021 19:58 16,7 C 16,1 C 16,1 C 96 % 1018,0 hPa 0,0 l/m 0 min 0 min 16 W/m 9,7 km/h (2 Bft) 97,87 %
29.08.2021 20:00 16,7 C 16,1 C 15,6 C 96 % 1018,0 hPa 0,0 l/m 0 min 0 min 14 W/m 6,4 km/h (2 Bft) 95,74 %
29.08.2021 20:02 16,7 C 16,1 C 15,6 C 96 % 1018,0 hPa 0,0 l/m 0 min 0 min 13 W/m 6,4 km/h (2 Bft) 93,62 %
29.08.2021 20:04 16,8 C 16,1 C 15,6 C 96 % 1018,0 hPa 0,0 l/m 0 min 0 min 12 W/m 3,2 km/h (1 Bft) 93,62 %
29.08.2021 20:06 16,8 C 16,1 C 16,1 C 96 % 1018,0 hPa 0,0 l/m 0 min 0 min 11 W/m 6,4 km/h (2 Bft) 91,49 %
29.08.2021 20:08 16,9 C 16,1 C 15,6 C 96 % 1018,1 hPa 0,0 l/m 0 min 0 min 9 W/m 6,4 km/h (2 Bft) 95,74 %
29.08.2021 20:10 16,9 C 16,1 C 15,6 C 96 % 1018,1 hPa 0,0 l/m 0 min 0 min 10 W/m 6,4 km/h (2 Bft) 95,65 %
29.08.2021 20:12 16,9 C 16,1 C 16,1 C 96 % 1018,1 hPa 0,0 l/m 0 min 0 min 11 W/m 9,7 km/h (2 Bft) 95,92 %
29.08.2021 20:14 16,8 C 16,1 C 15,6 C 96 % 1018,1 hPa 0,0 l/m 0 min 0 min 9 W/m 9,7 km/h (2 Bft) 94,29 %
29.08.2021 20:16 16,8 C 16,1 C 15,6 C 96 % 1018,1 hPa 0,0 l/m 0 min 0 min 7 W/m 9,7 km/h (2 Bft) 94,44 %
29.08.2021 20:18 16,8 C 16,1 C 15,6 C 96 % 1018,2 hPa 0,0 l/m 0 min 0 min 5 W/m 6,4 km/h (2 Bft) 94,00 %
29.08.2021 20:20 16,8 C 16,1 C 15,6 C 96 % 1018,1 hPa 0,0 l/m 0 min 0 min 4 W/m 6,4 km/h (2 Bft) 93,75 %
29.08.2021 20:22 16,9 C 16,1 C 15,6 C 96 % 1018,2 hPa 0,0 l/m 0 min 0 min 0 W/m 9,7 km/h (2 Bft) 97,14 %
29.08.2021 20:24 16,8 C 16,1 C 15,6 C 96 % 1018,2 hPa 0,0 l/m 0 min 0 min 0 W/m 6,4 km/h (2 Bft) 90,74 %
29.08.2021 20:26 16,9 C 16,1 C 16,1 C 96 % 1018,2 hPa 0,0 l/m 0 min 0 min 0 W/m 9,7 km/h (2 Bft) 94,00 %
29.08.2021 20:28 16,8 C 16,1 C 15,6 C 96 % 1018,1 hPa 0,0 l/m 0 min 0 min 0 W/m 9,7 km/h (2 Bft) 95,92 %
29.08.2021 20:30 16,8 C 16,1 C 15,6 C 96 % 1018,2 hPa 0,0 l/m 0 min 0 min 0 W/m 9,7 km/h (2 Bft) 94,29 %
29.08.2021 20:32 16,8 C 16,1 C 15,6 C 96 % 1018,1 hPa 0,0 l/m 0 min 0 min 0 W/m 9,7 km/h (2 Bft) 94,55 %
29.08.2021 20:34 16,8 C 16,1 C 15,6 C 96 % 1018,2 hPa 0,0 l/m 0 min 0 min 0 W/m 9,7 km/h (2 Bft) 89,74 %
29.08.2021 20:36 16,8 C 16,1 C 15,6 C 97 % 1018,2 hPa 0,0 l/m 0 min 0 min 0 W/m 6,4 km/h (2 Bft) 94,23 %
29.08.2021 20:38 16,8 C 16,1 C 16,1 C 97 % 1018,3 hPa 0,0 l/m 0 min 0 min 0 W/m 6,4 km/h (2 Bft) 95,74 %
29.08.2021 20:40 16,8 C 16,1 C 16,1 C 96 % 1018,3 hPa 0,0 l/m 0 min 0 min 0 W/m 6,4 km/h (2 Bft) 95,74 %
29.08.2021 20:42 16,8 C 16,1 C 16,1 C 96 % 1018,3 hPa 0,0 l/m 0 min 0 min 0 W/m 16,1 km/h (3 Bft) 94,00 %
29.08.2021 20:44 16,8 C 16,1 C 15,6 C 96 % 1018,3 hPa 0,2 l/m 0 min 2 min 0 W/m 6,4 km/h (2 Bft) 94,74 %
29.08.2021 20:46 16,8 C 16,1 C 15,6 C 96 % 1018,3 hPa 0,4 l/m 0 min 2 min 0 W/m 9,7 km/h (2 Bft) 95,65 %
29.08.2021 20:48 16,8 C 15,6 C 15,6 C 96 % 1018,4 hPa 0,4 l/m 0 min 2 min 0 W/m 9,7 km/h (2 Bft) 94,64 %
29.08.2021 20:50 16,8 C 15,6 C 15,6 C 96 % 1018,4 hPa 0,0 l/m 0 min 2 min 0 W/m 9,7 km/h (2 Bft) 97,37 %
29.08.2021 20:52 16,8 C 15,6 C 15,6 C 97 % 1018,4 hPa 0,4 l/m 0 min 2 min 0 W/m 9,7 km/h (2 Bft) 97,87 %
29.08.2021 20:54 16,8 C 15,6 C 15,6 C 97 % 1018,4 hPa 0,2 l/m 0 min 2 min 0 W/m 9,7 km/h (2 Bft) 100,00 %
29.08.2021 20:56 16,8 C 15,6 C 15,6 C 97 % 1018,4 hPa 0,2 l/m 0 min 2 min 0 W/m 6,4 km/h (2 Bft) 97,37 %
29.08.2021 20:58 16,8 C 15,6 C 16,1 C 97 % 1018,4 hPa 0,2 l/m 0 min 2 min 0 W/m 6,4 km/h (2 Bft) 100,00 %
29.08.2021 21:00 16,8 C 15,6 C 15,6 C 97 % 1018,4 hPa 0,0 l/m 0 min 0 min 0 W/m 9,7 km/h (2 Bft) 100,00 %
29.08.2021 21:02 16,8 C 15,6 C 15,6 C 97 % 1018,3 hPa 0,0 l/m 0 min 0 min 0 W/m 3,2 km/h (1 Bft) 100,00 %
29.08.2021 21:04 16,8 C 15,6 C 15,6 C 97 % 1018,3 hPa 0,0 l/m 0 min 0 min 0 W/m 3,2 km/h (1 Bft) 100,00 %
29.08.2021 21:06 16,8 C 15,6 C 15,6 C 97 % 1018,3 hPa 0,0 l/m 0 min 0 min 0 W/m 6,4 km/h (2 Bft) 100,00 %
29.08.2021 21:08 16,8 C 15,6 C 15,6 C 97 % 1018,3 hPa 0,0 l/m 0 min 0 min 0 W/m 6,4 km/h (2 Bft) 100,00 %
29.08.2021 21:10 16,8 C 15,6 C 15,6 C 97 % 1018,3 hPa 0,0 l/m 0 min 0 min 0 W/m 9,7 km/h (2 Bft) 100,00 %
29.08.2021 21:12 16,8 C 15,6 C 15,6 C 97 % 1018,3 hPa 0,0 l/m 0 min 0 min 0 W/m 12,9 km/h (3 Bft) 100,00 %
29.08.2021 21:14 16,8 C 15,6 C 16,1 C 97 % 1018,4 hPa 0,0 l/m 0 min 2 min 0 W/m 9,7 km/h (2 Bft) 100,00 %
29.08.2021 21:16 16,8 C 15,6 C 16,1 C 97 % 1018,4 hPa 0,2 l/m 0 min 2 min 0 W/m 9,7 km/h (2 Bft) 100,00 %
29.08.2021 21:18 16,8 C 15,6 C 16,1 C 97 % 1018,4 hPa 0,2 l/m 0 min 2 min 0 W/m 25,7 km/h (4 Bft) 100,00 %
29.08.2021 21:20 16,7 C 15,6 C 15,6 C 97 % 1018,4 hPa 0,2 l/m 0 min 2 min 0 W/m 19,3 km/h (3 Bft) 100,00 %
29.08.2021 21:22 16,7 C 15,6 C 15,6 C 97 % 1018,4 hPa 0,0 l/m 0 min 2 min 0 W/m 12,9 km/h (3 Bft) 98,00 %
29.08.2021 21:24 16,6 C 15,6 C 15,6 C 97 % 1018,5 hPa 0,2 l/m 0 min 2 min 0 W/m 16,1 km/h (3 Bft) 100,00 %
29.08.2021 21:26 16,6 C 15,6 C 15,6 C 97 % 1018,5 hPa 0,0 l/m 0 min 2 min 0 W/m 9,7 km/h (2 Bft) 100,00 %
29.08.2021 21:28 16,6 C 15,6 C 15,6 C 97 % 1018,5 hPa 0,0 l/m 0 min 0 min 0 W/m 12,9 km/h (3 Bft) 100,00 %
29.08.2021 21:30 16,6 C 15,6 C 15,6 C 97 % 1018,5 hPa 0,0 l/m 0 min 0 min 0 W/m 9,7 km/h (2 Bft) 100,00 %
29.08.2021 21:32 16,6 C 15,6 C 15,6 C 97 % 1018,6 hPa 0,0 l/m 0 min 0 min 0 W/m 9,7 km/h (2 Bft) 100,00 %
29.08.2021 21:34 16,6 C 15,6 C 15,6 C 97 % 1018,5 hPa 0,0 l/m 0 min 0 min 0 W/m 9,7 km/h (2 Bft) 100,00 %
29.08.2021 21:36 16,6 C 15,6 C 15,6 C 97 % 1018,5 hPa 0,0 l/m 0 min 0 min 0 W/m 12,9 km/h (3 Bft) 100,00 %
29.08.2021 21:38 16,6 C 15,6 C 15,6 C 97 % 1018,5 hPa 0,0 l/m 0 min 0 min 0 W/m 16,1 km/h (3 Bft) 100,00 %
29.08.2021 21:40 16,6 C 15,6 C 15,6 C 97 % 1018,6 hPa 0,0 l/m 0 min 0 min 0 W/m 12,9 km/h (3 Bft) 97,87 %
29.08.2021 21:42 16,6 C 15,6 C 16,1 C 97 % 1018,5 hPa 0,0 l/m 0 min 0 min 0 W/m 12,9 km/h (3 Bft) 100,00 %
29.08.2021 21:44 16,6 C 15,6 C 16,1 C 97 % 1018,5 hPa 0,0 l/m 0 min 0 min 0 W/m 6,4 km/h (2 Bft) 100,00 %
29.08.2021 21:46 16,6 C 15,6 C 16,1 C 97 % 1018,5 hPa 0,0 l/m 0 min 0 min 0 W/m 6,4 km/h (2 Bft) 100,00 %
29.08.2021 21:48 16,6 C 15,6 C 15,6 C 97 % 1018,5 hPa 0,0 l/m 0 min 0 min 0 W/m 6,4 km/h (2 Bft) 100,00 %
29.08.2021 21:50 16,6 C 15,6 C 15,6 C 97 % 1018,5 hPa 0,0 l/m 0 min 0 min 0 W/m 12,9 km/h (3 Bft) 100,00 %
29.08.2021 21:52 16,6 C 15,6 C 15,6 C 97 % 1018,5 hPa 0,0 l/m 0 min 0 min 0 W/m 9,7 km/h (2 Bft) 100,00 %
29.08.2021 21:54 16,6 C 15,6 C 16,1 C 97 % 1018,5 hPa 0,0 l/m 0 min 0 min 0 W/m 6,4 km/h (2 Bft) 100,00 %
29.08.2021 21:56 16,6 C 15,6 C 16,1 C 97 % 1018,5 hPa 0,0 l/m 0 min 0 min 0 W/m 16,1 km/h (3 Bft) 100,00 %
29.08.2021 21:58 16,6 C 15,6 C 16,1 C 97 % 1018,5 hPa 0,0 l/m 0 min 0 min 0 W/m 12,9 km/h (3 Bft) 100,00 %
29.08.2021 22:00 16,6 C 15,6 C 16,1 C 97 % 1018,5 hPa 0,0 l/m 0 min 0 min 0 W/m 9,7 km/h (2 Bft) 100,00 %
29.08.2021 22:02 16,6 C 15,6 C 16,1 C 97 % 1018,5 hPa 0,0 l/m 0 min 0 min 0 W/m 9,7 km/h (2 Bft) 97,87 %
29.08.2021 22:04 16,6 C 15,6 C 16,1 C 97 % 1018,5 hPa 0,0 l/m 0 min 0 min 0 W/m 3,2 km/h (1 Bft) 100,00 %
29.08.2021 22:06 16,6 C 15,6 C 16,1 C 97 % 1018,5 hPa 0,0 l/m 0 min 0 min 0 W/m 6,4 km/h (2 Bft) 97,87 %
29.08.2021 22:08 16,6 C 15,6 C 16,1 C 97 % 1018,5 hPa 0,0 l/m 0 min 0 min 0 W/m 9,7 km/h (2 Bft) 100,00 %
29.08.2021 22:10 16,6 C 15,6 C 16,1 C 97 % 1018,6 hPa 0,0 l/m 0 min 0 min 0 W/m 12,9 km/h (3 Bft) 100,00 %
29.08.2021 22:12 16,6 C 15,6 C 16,1 C 97 % 1018,5 hPa 0,0 l/m 0 min 0 min 0 W/m 6,4 km/h (2 Bft) 97,87 %
29.08.2021 22:14 16,6 C 15,6 C 16,1 C 97 % 1018,6 hPa 0,0 l/m 0 min 0 min 0 W/m 12,9 km/h (3 Bft) 100,00 %
29.08.2021 22:16 16,6 C 15,6 C 16,1 C 97 % 1018,5 hPa 0,0 l/m 0 min 0 min 0 W/m 12,9 km/h (3 Bft) 95,74 %
29.08.2021 22:18 16,6 C 15,6 C 16,1 C 98 % 1018,6 hPa 0,0 l/m 0 min 0 min 0 W/m 6,4 km/h (2 Bft) 97,87 %
29.08.2021 22:20 16,6 C 15,6 C 16,1 C 98 % 1018,6 hPa 0,0 l/m 0 min 0 min 0 W/m 6,4 km/h (2 Bft) 97,83 %
29.08.2021 22:22 16,6 C 15,6 C 16,1 C 98 % 1018,6 hPa 0,0 l/m 0 min 0 min 0 W/m 12,9 km/h (3 Bft) 97,87 %
29.08.2021 22:24 16,6 C 15,6 C 16,1 C 98 % 1018,6 hPa 0,0 l/m 0 min 0 min 0 W/m 9,7 km/h (2 Bft) 97,87 %
29.08.2021 22:26 16,6 C 15,6 C 16,1 C 98 % 1018,6 hPa 0,0 l/m 0 min 0 min 0 W/m 9,7 km/h (2 Bft) 95,74 %
29.08.2021 22:28 16,6 C 15,6 C 16,1 C 98 % 1018,6 hPa 0,0 l/m 0 min 0 min 0 W/m 9,7 km/h (2 Bft) 97,87 %
29.08.2021 22:30 16,6 C 15,6 C 16,1 C 98 % 1018,6 hPa 0,0 l/m 0 min 0 min 0 W/m 6,4 km/h (2 Bft) 97,87 %
29.08.2021 22:32 16,6 C 15,6 C 16,1 C 98 % 1018,6 hPa 0,0 l/m 0 min 0 min 0 W/m 6,4 km/h (2 Bft) 95,65 %
29.08.2021 22:34 16,6 C 15,6 C 16,1 C 98 % 1018,6 hPa 0,0 l/m 0 min 0 min 0 W/m 12,9 km/h (3 Bft) 95,74 %
29.08.2021 22:36 16,6 C 15,6 C 16,1 C 98 % 1018,7 hPa 0,0 l/m 0 min 0 min 0 W/m 19,3 km/h (3 Bft) 93,62 %
29.08.2021 22:38 16,6 C 15,6 C 16,1 C 98 % 1018,7 hPa 0,0 l/m 0 min 0 min 0 W/m 9,7 km/h (2 Bft) 93,62 %
29.08.2021 22:40 16,6 C 15,6 C 16,1 C 98 % 1018,6 hPa 0,0 l/m 0 min 0 min 0 W/m 9,7 km/h (2 Bft) 95,74 %
29.08.2021 22:42 16,6 C 15,6 C 16,1 C 98 % 1018,6 hPa 0,0 l/m 0 min 0 min 0 W/m 6,4 km/h (2 Bft) 93,62 %
29.08.2021 22:44 16,6 C 15,6 C 16,1 C 98 % 1018,6 hPa 0,0 l/m 0 min 0 min 0 W/m 16,1 km/h (3 Bft) 95,65 %
29.08.2021 22:46 16,6 C 15,6 C 16,1 C 98 % 1018,6 hPa 0,0 l/m 0 min 0 min 0 W/m 12,9 km/h (3 Bft) 93,62 %
29.08.2021 22:48 16,6 C 15,6 C 16,1 C 98 % 1018,6 hPa 0,0 l/m 0 min 0 min 0 W/m 16,1 km/h (3 Bft) 95,74 %
29.08.2021 22:50 16,6 C 15,6 C 16,1 C 98 % 1018,6 hPa 0,0 l/m 0 min 0 min 0 W/m 12,9 km/h (3 Bft) 97,87 %
29.08.2021 22:52 16,6 C 15,6 C 16,1 C 98 % 1018,6 hPa 0,0 l/m 0 min 2 min 0 W/m 12,9 km/h (3 Bft) 97,87 %
29.08.2021 22:54 16,6 C 15,6 C 16,1 C 98 % 1018,6 hPa 0,0 l/m 0 min 2 min 0 W/m 12,9 km/h (3 Bft) 93,62 %
29.08.2021 22:56 16,6 C 15,6 C 16,1 C 98 % 1018,7 hPa 0,0 l/m 0 min 2 min 0 W/m 19,3 km/h (3 Bft) 95,65 %
29.08.2021 22:58 16,6 C 15,6 C 16,1 C 98 % 1018,6 hPa 0,2 l/m 0 min 2 min 0 W/m 16,1 km/h (3 Bft) 95,74 %
29.08.2021 23:00 16,6 C 15,6 C 16,1 C 98 % 1018,6 hPa 0,0 l/m 0 min 0 min 0 W/m 12,9 km/h (3 Bft) 91,49 %
29.08.2021 23:02 16,6 C 15,6 C 16,1 C 98 % 1018,6 hPa 0,0 l/m 0 min 0 min 0 W/m 9,7 km/h (2 Bft) 95,74 %
29.08.2021 23:04 16,6 C 15,6 C 16,1 C 98 % 1018,7 hPa 0,0 l/m 0 min 0 min 0 W/m 16,1 km/h (3 Bft) 95,74 %
29.08.2021 23:06 16,6 C 15,6 C 16,1 C 98 % 1018,7 hPa 0,0 l/m 0 min 0 min 0 W/m 6,4 km/h (2 Bft) 95,74 %
29.08.2021 23:08 16,6 C 15,6 C 16,1 C 98 % 1018,7 hPa 0,0 l/m 0 min 0 min 0 W/m 6,4 km/h (2 Bft) 91,30 %
29.08.2021 23:10 16,6 C 15,6 C 16,1 C 98 % 1018,7 hPa 0,0 l/m 0 min 0 min 0 W/m 9,7 km/h (2 Bft) 93,62 %
29.08.2021 23:12 16,6 C 15,6 C 16,1 C 98 % 1018,7 hPa 0,0 l/m 0 min 0 min 0 W/m 16,1 km/h (3 Bft) 95,74 %
29.08.2021 23:14 16,6 C 15,6 C 16,1 C 98 % 1018,7 hPa 0,0 l/m 0 min 0 min 0 W/m 6,4 km/h (2 Bft) 95,74 %
29.08.2021 23:16 16,6 C 15,6 C 16,1 C 98 % 1018,6 hPa 0,0 l/m 0 min 0 min 0 W/m 12,9 km/h (3 Bft) 95,74 %
29.08.2021 23:18 16,6 C 15,6 C 16,1 C 98 % 1018,6 hPa 0,0 l/m 0 min 0 min 0 W/m 6,4 km/h (2 Bft) 93,62 %
29.08.2021 23:20 16,6 C 15,6 C 16,1 C 98 % 1018,6 hPa 0,0 l/m 0 min 0 min 0 W/m 9,7 km/h (2 Bft) 98,11 %
29.08.2021 23:22 16,6 C 15,6 C 16,1 C 98 % 1018,7 hPa 0,0 l/m 0 min 0 min 0 W/m 6,4 km/h (2 Bft) 97,87 %
29.08.2021 23:24 16,6 C 15,6 C 16,1 C 98 % 1018,6 hPa 0,0 l/m 0 min 0 min 0 W/m 12,9 km/h (3 Bft) 97,87 %
29.08.2021 23:26 16,6 C 15,6 C 16,1 C 98 % 1018,7 hPa 0,0 l/m 0 min 0 min 0 W/m 16,1 km/h (3 Bft) 95,74 %
29.08.2021 23:28 16,5 C 15,6 C 16,1 C 98 % 1018,6 hPa 0,0 l/m 0 min 0 min 0 W/m 12,9 km/h (3 Bft) 97,83 %
29.08.2021 23:30 16,5 C 15,6 C 16,1 C 98 % 1018,6 hPa 0,0 l/m 0 min 0 min 0 W/m 12,9 km/h (3 Bft) 95,74 %
29.08.2021 23:32 16,5 C 15,6 C 16,1 C 98 % 1018,7 hPa 0,0 l/m 0 min 0 min 0 W/m 12,9 km/h (3 Bft) 97,92 %
29.08.2021 23:34 16,5 C 15,6 C 16,1 C 98 % 1018,7 hPa 0,0 l/m 0 min 0 min 0 W/m 6,4 km/h (2 Bft) 91,49 %
29.08.2021 23:36 16,5 C 15,6 C 16,1 C 98 % 1018,7 hPa 0,0 l/m 0 min 0 min 0 W/m 6,4 km/h (2 Bft) 95,74 %
29.08.2021 23:38 16,5 C 15,6 C 16,1 C 98 % 1018,7 hPa 0,0 l/m 0 min 0 min 0 W/m 12,9 km/h (3 Bft) 97,87 %
29.08.2021 23:40 16,5 C 15,6 C 16,1 C 98 % 1018,7 hPa 0,0 l/m 0 min 0 min 0 W/m 12,9 km/h (3 Bft) 97,83 %
29.08.2021 23:42 16,5 C 15,6 C 16,1 C 98 % 1018,7 hPa 0,0 l/m 0 min 0 min 0 W/m 3,2 km/h (1 Bft) 100,00 %
29.08.2021 23:44 16,5 C 15,6 C 16,1 C 98 % 1018,7 hPa 0,0 l/m 0 min 0 min 0 W/m 12,9 km/h (3 Bft) 97,87 %
29.08.2021 23:46 16,5 C 15,6 C 16,1 C 98 % 1018,7 hPa 0,0 l/m 0 min 0 min 0 W/m 9,7 km/h (2 Bft) 97,87 %
29.08.2021 23:48 16,4 C 15,6 C 16,1 C 98 % 1018,7 hPa 0,0 l/m 0 min 0 min 0 W/m 6,4 km/h (2 Bft) 100,00 %
29.08.2021 23:50 16,5 C 15,6 C 16,1 C 98 % 1018,7 hPa 0,0 l/m 0 min 0 min 0 W/m 9,7 km/h (2 Bft) 100,00 %
29.08.2021 23:52 16,4 C 15,6 C 16,1 C 98 % 1018,7 hPa 0,0 l/m 0 min 0 min 0 W/m 12,9 km/h (3 Bft) 100,00 %
29.08.2021 23:54 16,4 C 15,6 C 16,1 C 98 % 1018,7 hPa 0,0 l/m 0 min 0 min 0 W/m 6,4 km/h (2 Bft) 100,00 %
29.08.2021 23:56 16,4 C 15,6 C 16,1 C 98 % 1018,7 hPa 0,0 l/m 0 min 0 min 0 W/m 12,9 km/h (3 Bft) 100,00 %
29.08.2021 23:58 16,4 C 15,6 C 16,1 C 98 % 1018,7 hPa 0,0 l/m 0 min 0 min 0 W/m 6,4 km/h (2 Bft) 97,87 %
_ Min-Zeit 03:06 02:06 02:54 00:00 18:30 - - - - 00:04 04:56
Minimum _ 14,0 C 13,3 C 12,8 C 92 % 1017,8 hPa - - - - 3,2 km/h (1 Bft) 55,32 %
_ Max-Zeit 17:46 17:26 17:26 13:50 00:12 20:46 17:18 12:07 17:26 11:38 00:34
Maximum _ 17,5 C 22,8 C 17,3 C 98 % 1020,8 hPa 0,4 l/m 2 min 3 min 617 W/m 29,0 km/h
N-NW (5 Bft)
100,00 %
Durchschnitt _ 15,4 C 14,9 C 14,6 C 96 % 1019,1 hPa #7,0 l/m #38 min. #2:42 h 89 W/m 11,4 km/h (2 Bft) 97,45 %
© 2021 W. Hausmann